Time,TemperatureF,DewpointF,PressureIn,WindDirection,WindDirectionDegrees,WindSpeedMPH,WindSpeedGustMPH,Humidity,HourlyPrecipIn,Conditions,Clouds,dailyrainin,SoftwareType,DateUTC
2013-01-29 00:00:00,53.9,47.2,30.05,South,175,3.0,5.0,78,0.00,,---,0.10,VWS V14.01,2013-01-29 05:00:00,
2013-01-29 00:01:00,53.9,47.2,30.05,South,174,3.0,6.0,78,0.00,,---,0.10,VWS V14.01,2013-01-29 05:01:00,
2013-01-29 00:02:00,53.9,47.2,30.05,South,189,5.0,10.0,78,0.00,,---,0.00,VWS V14.01,2013-01-29 05:02:00,
2013-01-29 00:03:00,53.9,47.2,30.05,SSW,213,5.0,6.0,78,0.00,,---,0.00,VWS V14.01,2013-01-29 05:03:00,
2013-01-29 00:04:00,53.9,47.2,30.05,South,175,6.0,9.0,78,0.00,,---,0.00,VWS V14.01,2013-01-29 05:04:00,
2013-01-29 00:05:00,53.9,47.2,30.05,South,169,2.0,8.0,78,0.00,,---,0.00,VWS V14.01,2013-01-29 05:05:00,
2013-01-29 00:06:00,53.9,47.2,30.05,South,171,1.0,7.0,78,0.00,,---,0.00,VWS V14.01,2013-01-29 05:06:00,
2013-01-29 00:07:00,53.9,47.2,30.05,SSW,196,2.0,9.0,78,0.00,,---,0.00,VWS V14.01,2013-01-29 05:07:00,
2013-01-29 00:08:00,53.9,47.2,30.05,SSW,196,0.0,2.0,78,0.00,,---,0.00,VWS V14.01,2013-01-29 05:08:00,
2013-01-29 00:09:00,53.9,47.2,30.05,South,178,5.0,10.0,78,0.00,,---,0.00,VWS V14.01,2013-01-29 05:09:00,
2013-01-29 00:10:00,53.8,47.1,30.05,South,179,1.0,5.0,78,0.00,,---,0.00,VWS V14.01,2013-01-29 05:10:00,
2013-01-29 00:11:00,53.8,47.1,30.05,South,184,4.0,7.0,78,0.00,,---,0.00,VWS V14.01,2013-01-29 05:11:00,
2013-01-29 00:12:00,53.8,47.1,30.05,SSW,207,3.0,8.0,78,0.00,,---,0.00,VWS V14.01,2013-01-29 05:12:00,
2013-01-29 00:13:00,53.8,47.1,30.05,SSW,197,2.0,5.0,78,0.00,,---,0.00,VWS V14.01,2013-01-29 05:13:00,
2013-01-29 00:14:00,53.8,47.1,30.05,SW,235,7.0,7.0,78,0.00,,---,0.00,VWS V14.01,2013-01-29 05:14:00,
2013-01-29 00:15:00,53.8,47.1,30.04,South,188,1.0,9.0,78,0.00,,---,0.00,VWS V14.01,2013-01-29 05:15:00,
2013-01-29 00:16:00,53.8,47.1,30.04,SSW,196,5.0,5.0,78,0.00,,---,0.00,VWS V14.01,2013-01-29 05:16:00,
2013-01-29 00:17:00,53.8,47.1,30.04,South,182,1.0,5.0,78,0.00,,---,0.00,VWS V14.01,2013-01-29 05:17:00,
2013-01-29 00:18:00,53.8,47.1,30.04,South,182,2.0,2.0,78,0.00,,---,0.00,VWS V14.01,2013-01-29 05:18:00,
2013-01-29 00:19:00,53.6,46.9,30.04,SSW,212,1.0,8.0,78,0.00,,---,0.00,VWS V14.01,2013-01-29 05:19:00,
2013-01-29 00:20:00,53.6,46.9,30.04,SW,214,6.0,6.0,78,0.00,,---,0.00,VWS V14.01,2013-01-29 05:20:00,
2013-01-29 00:21:00,53.6,46.9,30.04,South,189,4.0,6.0,78,0.00,,---,0.00,VWS V14.01,2013-01-29 05:21:00,
2013-01-29 00:22:00,53.6,47.3,30.04,SW,227,1.0,7.0,79,0.00,,---,0.00,VWS V14.01,2013-01-29 05:22:00,
2013-01-29 00:23:00,53.6,47.3,30.04,SW,229,4.0,4.0,79,0.00,,---,0.00,VWS V14.01,2013-01-29 05:23:00,
2013-01-29 00:24:00,53.8,47.5,30.04,SSW,192,4.0,7.0,79,0.00,,---,0.00,VWS V14.01,2013-01-29 05:24:00,
2013-01-29 00:25:00,53.8,47.1,30.04,West,272,1.0,6.0,78,0.00,,---,0.00,VWS V14.01,2013-01-29 05:25:00,
2013-01-29 00:26:00,53.8,47.5,30.04,WSW,245,4.0,4.0,79,0.00,,---,0.00,VWS V14.01,2013-01-29 05:26:00,
2013-01-29 00:27:00,53.8,47.1,30.04,WSW,240,2.0,4.0,78,0.00,,---,0.00,VWS V14.01,2013-01-29 05:27:00,
2013-01-29 00:28:00,53.8,47.1,30.04,WSW,240,1.0,2.0,78,0.00,,---,0.00,VWS V14.01,2013-01-29 05:28:00,
2013-01-29 00:29:00,53.8,47.5,30.04,South,190,0.0,6.0,79,0.00,,---,0.00,VWS V14.01,2013-01-29 05:29:00,
2013-01-29 00:30:00,53.8,47.1,30.04,South,172,7.0,7.0,78,0.00,,---,0.00,VWS V14.01,2013-01-29 05:30:00,
2013-01-29 00:31:00,53.9,47.5,30.04,SSW,192,6.0,7.0,79,0.00,,---,0.00,VWS V14.01,2013-01-29 05:31:00,
2013-01-29 00:32:00,53.9,47.5,30.04,South,186,1.0,6.0,79,0.00,,---,0.00,VWS V14.01,2013-01-29 05:32:00,
2013-01-29 00:33:00,53.9,47.2,30.04,WNW,297,6.0,6.0,78,0.00,,---,0.00,VWS V14.01,2013-01-29 05:33:00,
2013-01-29 00:34:00,54.1,47.4,30.04,SSW,196,8.0,8.0,78,0.00,,---,0.00,VWS V14.01,2013-01-29 05:34:00,
2013-01-29 00:35:00,54.1,47.4,30.04,WSW,252,5.0,8.0,78,0.00,,---,0.00,VWS V14.01,2013-01-29 05:35:00,
2013-01-29 00:36:00,54.1,47.4,30.04,West,263,3.0,7.0,78,0.00,,---,0.00,VWS V14.01,2013-01-29 05:36:00,
2013-01-29 00:37:00,54.1,47.4,30.04,SW,221,4.0,5.0,78,0.00,,---,0.00,VWS V14.01,2013-01-29 05:37:00,
2013-01-29 00:38:00,54.1,47.4,30.04,SW,221,2.0,4.0,78,0.00,,---,0.00,VWS V14.01,2013-01-29 05:38:00,
2013-01-29 00:39:00,54.2,47.5,30.04,SSW,198,2.0,5.0,78,0.00,,---,0.00,VWS V14.01,2013-01-29 05:39:00,
2013-01-29 00:40:00,54.2,47.5,30.04,South,186,5.0,12.0,78,0.00,,---,0.00,VWS V14.01,2013-01-29 05:40:00,
2013-01-29 00:41:00,54.2,47.5,30.04,South,185,5.0,7.0,78,0.00,,---,0.00,VWS V14.01,2013-01-29 05:41:00,
2013-01-29 00:42:00,54.4,47.7,30.04,South,189,1.0,5.0,78,0.00,,---,0.00,VWS V14.01,2013-01-29 05:42:00,
2013-01-29 00:43:00,54.4,47.7,30.04,South,189,0.0,1.0,78,0.00,,---,0.00,VWS V14.01,2013-01-29 05:43:00,
2013-01-29 00:44:00,54.2,47.2,30.04,SSW,193,0.0,8.0,77,0.00,,---,0.00,VWS V14.01,2013-01-29 05:44:00,
2013-01-29 00:45:00,54.2,47.2,30.04,SSW,193,1.0,5.0,77,0.00,,---,0.00,VWS V14.01,2013-01-29 05:45:00,
2013-01-29 00:46:00,54.2,47.5,30.04,SSW,206,0.0,8.0,78,0.00,,---,0.00,VWS V14.01,2013-01-29 05:46:00,
2013-01-29 00:47:00,54.4,47.3,30.04,SW,227,4.0,6.0,77,0.00,,---,0.00,VWS V14.01,2013-01-29 05:47:00,
2013-01-29 00:48:00,54.4,47.3,30.04,SW,227,4.0,4.0,77,0.00,,---,0.00,VWS V14.01,2013-01-29 05:48:00,
2013-01-29 00:49:00,54.4,47.3,30.04,WSW,254,6.0,12.0,77,0.00,,---,0.00,VWS V14.01,2013-01-29 05:49:00,
2013-01-29 00:50:00,54.4,47.3,30.04,WSW,244,2.0,7.0,77,0.00,,---,0.00,VWS V14.01,2013-01-29 05:50:00,
2013-01-29 00:51:00,54.4,47.3,30.04,SSW,200,4.0,7.0,77,0.00,,---,0.00,VWS V14.01,2013-01-29 05:51:00,
2013-01-29 00:52:00,54.4,47.3,30.04,SW,215,4.0,5.0,77,0.00,,---,0.00,VWS V14.01,2013-01-29 05:52:00,
2013-01-29 00:53:00,54.4,47.3,30.04,West,267,4.0,6.0,77,0.00,,---,0.00,VWS V14.01,2013-01-29 05:53:00,
2013-01-29 00:54:00,54.4,47.3,30.04,WSW,250,4.0,6.0,77,0.00,,---,0.00,VWS V14.01,2013-01-29 05:54:00,
2013-01-29 00:55:00,54.4,47.3,30.04,WSW,246,3.0,6.0,77,0.00,,---,0.00,VWS V14.01,2013-01-29 05:55:00,
2013-01-29 00:56:00,54.5,47.5,30.04,West,276,7.0,12.0,77,0.00,,---,0.00,VWS V14.01,2013-01-29 05:56:00,
2013-01-29 00:57:00,54.5,47.5,30.04,SW,234,5.0,11.0,77,0.00,,---,0.00,VWS V14.01,2013-01-29 05:57:00,
2013-01-29 00:58:00,54.5,47.5,30.04,WSW,249,6.0,6.0,77,0.00,,---,0.00,VWS V14.01,2013-01-29 05:58:00,
2013-01-29 00:59:00,54.7,47.6,30.04,SW,218,7.0,8.0,77,0.00,,---,0.00,VWS V14.01,2013-01-29 05:59:00,
2013-01-29 01:00:00,54.7,47.6,30.03,SSW,200,8.0,9.0,77,0.00,,---,0.00,VWS V14.01,2013-01-29 06:00:00,
2013-01-29 01:01:00,54.7,47.6,30.03,SSW,196,4.0,9.0,77,0.00,,---,0.00,VWS V14.01,2013-01-29 06:01:00,
2013-01-29 01:02:00,54.7,47.6,30.03,South,182,7.0,7.0,77,0.00,,---,0.00,VWS V14.01,2013-01-29 06:02:00,
2013-01-29 01:03:00,54.7,47.6,30.03,SE,146,7.0,8.0,77,0.00,,---,0.00,VWS V14.01,2013-01-29 06:03:00,
2013-01-29 01:04:00,54.7,47.6,30.03,South,189,7.0,11.0,77,0.00,,---,0.00,VWS V14.01,2013-01-29 06:04:00,
2013-01-29 01:05:00,54.7,47.6,30.03,SSW,192,2.0,9.0,77,0.00,,---,0.00,VWS V14.01,2013-01-29 06:05:00,
2013-01-29 01:06:00,54.8,47.7,30.03,SW,223,4.0,6.0,77,0.00,,---,0.00,VWS V14.01,2013-01-29 06:06:00,
2013-01-29 01:07:00,54.7,47.6,30.03,South,190,1.0,4.0,77,0.00,,---,0.00,VWS V14.01,2013-01-29 06:07:00,
2013-01-29 01:08:00,54.7,47.6,30.03,SW,219,7.0,7.0,77,0.00,,---,0.00,VWS V14.01,2013-01-29 06:08:00,
2013-01-29 01:09:00,54.8,47.7,30.03,South,189,2.0,4.0,77,0.00,,---,0.00,VWS V14.01,2013-01-29 06:09:00,
2013-01-29 01:10:00,54.7,47.6,30.03,SSW,196,5.0,5.0,77,0.00,,---,0.00,VWS V14.01,2013-01-29 06:10:00,
2013-01-29 01:11:00,54.7,47.6,30.03,West,280,2.0,6.0,77,0.00,,---,0.00,VWS V14.01,2013-01-29 06:11:00,
2013-01-29 01:12:00,54.7,47.6,30.03,SSW,207,0.0,5.0,77,0.00,,---,0.00,VWS V14.01,2013-01-29 06:12:00,
2013-01-29 01:13:00,54.7,47.6,30.03,SSW,207,0.0,5.0,77,0.00,,---,0.00,VWS V14.01,2013-01-29 06:13:00,
2013-01-29 01:14:00,54.7,47.6,30.03,South,186,4.0,5.0,77,0.00,,---,0.00,VWS V14.01,2013-01-29 06:14:00,
2013-01-29 01:15:00,54.7,47.6,30.02,South,188,1.0,4.0,77,0.00,,---,0.00,VWS V14.01,2013-01-29 06:15:00,
2013-01-29 01:16:00,54.7,47.6,30.02,SSW,195,5.0,7.0,77,0.00,,---,0.00,VWS V14.01,2013-01-29 06:16:00,
2013-01-29 01:17:00,54.7,47.6,30.02,SSW,211,3.0,6.0,77,0.00,,---,0.00,VWS V14.01,2013-01-29 06:17:00,
2013-01-29 01:18:00,54.7,47.6,30.02,SSW,211,2.0,3.0,77,0.00,,---,0.00,VWS V14.01,2013-01-29 06:18:00,
2013-01-29 01:19:00,54.8,47.7,30.02,South,174,7.0,8.0,77,0.00,,---,0.00,VWS V14.01,2013-01-29 06:19:00,
2013-01-29 01:20:00,54.8,47.7,30.02,SSW,193,4.0,9.0,77,0.00,,---,0.00,VWS V14.01,2013-01-29 06:20:00,
2013-01-29 01:21:00,54.8,47.7,30.02,SSW,210,2.0,6.0,77,0.00,,---,0.00,VWS V14.01,2013-01-29 06:21:00,
2013-01-29 01:22:00,54.8,47.7,30.02,West,274,5.0,8.0,77,0.00,,---,0.00,VWS V14.01,2013-01-29 06:22:00,
2013-01-29 01:23:00,54.8,47.7,30.02,West,274,5.0,8.0,77,0.00,,---,0.00,VWS V14.01,2013-01-29 06:23:00,
2013-01-29 01:24:00,54.8,47.7,30.02,West,262,6.0,8.0,77,0.00,,---,0.00,VWS V14.01,2013-01-29 06:24:00,
2013-01-29 01:25:00,55.0,47.9,30.02,South,171,7.0,7.0,77,0.00,,---,0.00,VWS V14.01,2013-01-29 06:25:00,
2013-01-29 01:26:00,55.0,47.9,30.02,SW,235,4.0,9.0,77,0.00,,---,0.00,VWS V14.01,2013-01-29 06:26:00,
2013-01-29 01:27:00,55.0,47.9,30.02,WSW,246,1.0,8.0,77,0.00,,---,0.00,VWS V14.01,2013-01-29 06:27:00,
2013-01-29 01:28:00,55.0,47.9,30.02,WSW,246,1.0,8.0,77,0.00,,---,0.00,VWS V14.01,2013-01-29 06:28:00,
2013-01-29 01:29:00,55.1,48.0,30.02,WSW,252,6.0,6.0,77,0.00,,---,0.00,VWS V14.01,2013-01-29 06:29:00,
2013-01-29 01:30:00,55.0,47.9,30.03,WSW,250,8.0,8.0,77,0.00,,---,0.00,VWS V14.01,2013-01-29 06:30:00,
2013-01-29 01:31:00,55.1,48.0,30.03,West,267,1.0,8.0,77,0.00,,---,0.00,VWS V14.01,2013-01-29 06:31:00,
2013-01-29 01:32:00,55.0,47.9,30.03,WSW,254,8.0,10.0,77,0.00,,---,0.00,VWS V14.01,2013-01-29 06:32:00,
2013-01-29 01:33:00,55.0,47.9,30.03,WSW,254,8.0,10.0,77,0.00,,---,0.00,VWS V14.01,2013-01-29 06:33:00,
2013-01-29 01:34:00,55.1,48.0,30.03,South,190,1.0,6.0,77,0.00,,---,0.00,VWS V14.01,2013-01-29 06:34:00,
2013-01-29 01:35:00,55.1,48.0,30.03,SSW,192,9.0,9.0,77,0.00,,---,0.00,VWS V14.01,2013-01-29 06:35:00,
2013-01-29 01:36:00,55.1,48.0,30.03,SSW,195,11.0,12.0,77,0.00,,---,0.00,VWS V14.01,2013-01-29 06:36:00,
2013-01-29 01:37:00,55.1,48.0,30.03,WSW,245,4.0,11.0,77,0.00,,---,0.00,VWS V14.01,2013-01-29 06:37:00,
2013-01-29 01:38:00,55.1,48.0,30.03,WSW,245,4.0,11.0,77,0.00,,---,0.00,VWS V14.01,2013-01-29 06:38:00,
2013-01-29 01:39:00,55.1,48.0,30.03,SSW,201,10.0,10.0,77,0.00,,---,0.00,VWS V14.01,2013-01-29 06:39:00,
2013-01-29 01:40:00,55.1,48.0,30.03,SW,234,2.0,10.0,77,0.00,,---,0.00,VWS V14.01,2013-01-29 06:40:00,
2013-01-29 01:41:00,55.1,48.0,30.03,SW,220,0.0,6.0,77,0.00,,---,0.00,VWS V14.01,2013-01-29 06:41:00,
2013-01-29 01:42:00,55.1,48.0,30.03,SSW,193,0.0,8.0,77,0.00,,---,0.00,VWS V14.01,2013-01-29 06:42:00,
2013-01-29 01:43:00,55.1,48.0,30.03,SSW,193,0.0,8.0,77,0.00,,---,0.00,VWS V14.01,2013-01-29 06:43:00,
2013-01-29 01:44:00,55.1,48.0,30.03,SW,215,2.0,6.0,77,0.00,,---,0.00,VWS V14.01,2013-01-29 06:44:00,
2013-01-29 01:45:00,55.1,48.0,30.03,WSW,247,5.0,9.0,77,0.00,,---,0.00,VWS V14.01,2013-01-29 06:45:00,
2013-01-29 01:46:00,55.3,48.2,30.03,SW,229,0.0,8.0,77,0.00,,---,0.00,VWS V14.01,2013-01-29 06:46:00,
2013-01-29 01:47:00,55.3,48.2,30.03,South,187,1.0,7.0,77,0.00,,---,0.00,VWS V14.01,2013-01-29 06:47:00,
2013-01-29 01:48:00,55.3,48.2,30.03,South,187,1.0,7.0,77,0.00,,---,0.00,VWS V14.01,2013-01-29 06:48:00,
2013-01-29 01:49:00,55.3,48.2,30.03,SSW,209,1.0,5.0,77,0.00,,---,0.00,VWS V14.01,2013-01-29 06:49:00,
2013-01-29 01:50:00,55.3,48.2,30.03,South,175,6.0,6.0,77,0.00,,---,0.00,VWS V14.01,2013-01-29 06:50:00,
2013-01-29 01:51:00,55.3,48.2,30.03,SSW,204,5.0,8.0,77,0.00,,---,0.00,VWS V14.01,2013-01-29 06:51:00,
2013-01-29 01:52:00,55.3,48.2,30.03,South,171,0.0,8.0,77,0.00,,---,0.00,VWS V14.01,2013-01-29 06:52:00,
2013-01-29 01:53:00,55.3,48.2,30.03,South,171,0.0,8.0,77,0.00,,---,0.00,VWS V14.01,2013-01-29 06:53:00,
2013-01-29 01:54:00,55.3,48.2,30.03,SW,223,6.0,11.0,77,0.00,,---,0.00,VWS V14.01,2013-01-29 06:54:00,
2013-01-29 01:55:00,55.3,48.2,30.03,SSW,206,7.0,9.0,77,0.00,,---,0.00,VWS V14.01,2013-01-29 06:55:00,
2013-01-29 01:56:00,55.3,48.2,30.03,SSW,199,1.0,10.0,77,0.00,,---,0.00,VWS V14.01,2013-01-29 06:56:00,
2013-01-29 01:57:00,55.3,48.2,30.03,SSW,198,1.0,7.0,77,0.00,,---,0.00,VWS V14.01,2013-01-29 06:57:00,
2013-01-29 01:58:00,55.3,48.2,30.03,SSW,198,1.0,7.0,77,0.00,,---,0.00,VWS V14.01,2013-01-29 06:58:00,
2013-01-29 01:59:00,55.3,48.2,30.03,South,171,6.0,8.0,77,0.00,,---,0.00,VWS V14.01,2013-01-29 06:59:00,
2013-01-29 02:00:00,55.1,48.0,30.03,SSW,196,2.0,6.0,77,0.00,,---,0.00,VWS V14.01,2013-01-29 07:00:00,
2013-01-29 02:01:00,55.1,48.0,30.03,WSW,252,7.0,12.0,77,0.00,,---,0.00,VWS V14.01,2013-01-29 07:01:00,
2013-01-29 02:02:00,55.1,48.0,30.03,WSW,243,5.0,8.0,77,0.00,,---,0.00,VWS V14.01,2013-01-29 07:02:00,
2013-01-29 02:03:00,55.1,48.0,30.03,WSW,243,5.0,8.0,77,0.00,,---,0.00,VWS V14.01,2013-01-29 07:03:00,
2013-01-29 02:04:00,55.1,48.0,30.03,South,186,5.0,7.0,77,0.00,,---,0.00,VWS V14.01,2013-01-29 07:04:00,
2013-01-29 02:05:00,55.1,48.0,30.03,SW,233,6.0,9.0,77,0.00,,---,0.00,VWS V14.01,2013-01-29 07:05:00,
2013-01-29 02:06:00,55.1,48.0,30.03,SSW,192,5.0,9.0,77,0.00,,---,0.00,VWS V14.01,2013-01-29 07:06:00,
2013-01-29 02:07:00,55.1,48.0,30.03,South,170,3.0,11.0,77,0.00,,---,0.00,VWS V14.01,2013-01-29 07:07:00,
2013-01-29 02:08:00,55.1,48.0,30.03,South,170,3.0,11.0,77,0.00,,---,0.00,VWS V14.01,2013-01-29 07:08:00,
2013-01-29 02:09:00,55.1,48.0,30.03,South,179,6.0,8.0,77,0.00,,---,0.00,VWS V14.01,2013-01-29 07:09:00,
2013-01-29 02:10:00,55.1,48.0,30.03,South,174,5.0,8.0,77,0.00,,---,0.00,VWS V14.01,2013-01-29 07:10:00,
2013-01-29 02:11:00,55.1,48.0,30.03,South,180,4.0,6.0,77,0.00,,---,0.00,VWS V14.01,2013-01-29 07:11:00,
2013-01-29 02:12:00,55.1,48.0,30.03,South,182,4.0,9.0,77,0.00,,---,0.00,VWS V14.01,2013-01-29 07:12:00,
2013-01-29 02:13:00,55.1,48.0,30.03,South,182,4.0,9.0,77,0.00,,---,0.00,VWS V14.01,2013-01-29 07:13:00,
2013-01-29 02:14:00,55.1,48.0,30.03,South,173,2.0,6.0,77,0.00,,---,0.00,VWS V14.01,2013-01-29 07:14:00,
2013-01-29 02:15:00,55.1,48.0,30.03,South,178,1.0,4.0,77,0.00,,---,0.00,VWS V14.01,2013-01-29 07:15:00,
2013-01-29 02:16:00,55.1,48.0,30.03,SSW,202,0.0,7.0,77,0.00,,---,0.00,VWS V14.01,2013-01-29 07:16:00,
2013-01-29 02:17:00,55.1,48.0,30.03,SSW,202,1.0,4.0,77,0.00,,---,0.00,VWS V14.01,2013-01-29 07:17:00,
2013-01-29 02:18:00,55.1,48.0,30.03,SSW,202,2.0,4.0,77,0.00,,---,0.00,VWS V14.01,2013-01-29 07:18:00,
2013-01-29 02:19:00,55.0,47.9,30.03,SSW,202,2.0,4.0,77,0.00,,---,0.00,VWS V14.01,2013-01-29 07:19:00,
2013-01-29 02:20:00,55.0,47.9,30.03,SSE,167,6.0,8.0,77,0.00,,---,0.00,VWS V14.01,2013-01-29 07:20:00,
2013-01-29 02:21:00,55.0,48.3,30.03,SSW,200,1.0,8.0,78,0.00,,---,0.00,VWS V14.01,2013-01-29 07:21:00,
2013-01-29 02:22:00,55.0,47.9,30.03,South,189,5.0,5.0,77,0.00,,---,0.00,VWS V14.01,2013-01-29 07:22:00,
2013-01-29 02:23:00,55.0,47.9,30.03,South,189,5.0,5.0,77,0.00,,---,0.00,VWS V14.01,2013-01-29 07:23:00,
2013-01-29 02:24:00,54.8,48.1,30.03,South,186,3.0,5.0,78,0.00,,---,0.00,VWS V14.01,2013-01-29 07:24:00,
2013-01-29 02:25:00,54.8,47.7,30.03,South,186,2.0,3.0,77,0.00,,---,0.00,VWS V14.01,2013-01-29 07:25:00,
2013-01-29 02:26:00,54.7,47.6,30.03,South,186,0.0,3.0,77,0.00,,---,0.00,VWS V14.01,2013-01-29 07:26:00,
2013-01-29 02:27:00,54.7,48.0,30.03,South,186,0.0,1.0,78,0.00,,---,0.00,VWS V14.01,2013-01-29 07:27:00,
2013-01-29 02:28:00,54.7,48.0,30.03,South,186,0.0,1.0,78,0.00,,---,0.00,VWS V14.01,2013-01-29 07:28:00,
2013-01-29 02:29:00,54.5,47.8,30.03,SSW,194,1.0,4.0,78,0.00,,---,0.00,VWS V14.01,2013-01-29 07:29:00,
2013-01-29 02:30:00,54.5,47.8,30.04,SSW,194,0.0,2.0,78,0.00,,---,0.00,VWS V14.01,2013-01-29 07:30:00,
2013-01-29 02:31:00,54.5,47.8,30.04,SSW,194,0.0,1.0,78,0.00,,---,0.00,VWS V14.01,2013-01-29 07:31:00,
2013-01-29 02:32:00,54.4,47.7,30.04,SSW,194,4.0,4.0,78,0.00,,---,0.00,VWS V14.01,2013-01-29 07:32:00,
2013-01-29 02:33:00,54.4,47.7,30.04,SSW,194,4.0,4.0,78,0.00,,---,0.00,VWS V14.01,2013-01-29 07:33:00,
2013-01-29 02:34:00,54.4,47.7,30.04,South,186,5.0,6.0,78,0.00,,---,0.00,VWS V14.01,2013-01-29 07:34:00,
2013-01-29 02:35:00,54.2,47.5,30.04,SSW,193,5.0,7.0,78,0.00,,---,0.00,VWS V14.01,2013-01-29 07:35:00,
2013-01-29 02:36:00,54.2,47.8,30.04,SSW,211,4.0,6.0,79,0.00,,---,0.00,VWS V14.01,2013-01-29 07:36:00,
2013-01-29 02:37:00,54.2,47.5,30.04,SSW,211,1.0,4.0,78,0.00,,---,0.00,VWS V14.01,2013-01-29 07:37:00,
2013-01-29 02:38:00,54.2,47.5,30.04,SSW,211,1.0,4.0,78,0.00,,---,0.00,VWS V14.01,2013-01-29 07:38:00,
2013-01-29 02:39:00,54.1,47.7,30.04,SSE,163,2.0,6.0,79,0.00,,---,0.00,VWS V14.01,2013-01-29 07:39:00,
2013-01-29 02:40:00,54.1,47.7,30.04,South,182,5.0,8.0,79,0.00,,---,0.00,VWS V14.01,2013-01-29 07:40:00,
2013-01-29 02:41:00,54.1,47.7,30.04,SSW,196,8.0,9.0,79,0.00,,---,0.00,VWS V14.01,2013-01-29 07:41:00,
2013-01-29 02:42:00,54.1,47.7,30.04,South,181,2.0,9.0,79,0.00,,---,0.00,VWS V14.01,2013-01-29 07:42:00,
2013-01-29 02:43:00,54.1,47.7,30.04,South,181,4.0,9.0,79,0.00,,---,0.00,VWS V14.01,2013-01-29 07:43:00,
2013-01-29 02:44:00,54.2,47.8,30.04,South,188,4.0,6.0,79,0.00,,---,0.00,VWS V14.01,2013-01-29 07:44:00,
2013-01-29 02:45:00,54.4,48.0,30.03,South,185,6.0,13.0,79,0.00,,---,0.00,VWS V14.01,2013-01-29 07:45:00,
2013-01-29 02:46:00,54.4,48.0,30.03,SSW,200,4.0,10.0,79,0.00,,---,0.00,VWS V14.01,2013-01-29 07:46:00,
2013-01-29 02:47:00,54.5,47.8,30.03,South,182,6.0,6.0,78,0.00,,---,0.00,VWS V14.01,2013-01-29 07:47:00,
2013-01-29 02:48:00,54.5,48.1,30.03,South,182,5.0,6.0,79,0.00,,---,0.00,VWS V14.01,2013-01-29 07:48:00,
2013-01-29 02:49:00,54.4,47.7,30.03,South,184,6.0,7.0,78,0.00,,---,0.00,VWS V14.01,2013-01-29 07:49:00,
2013-01-29 02:50:00,54.4,48.0,30.03,SW,222,6.0,6.0,79,0.00,,---,0.00,VWS V14.01,2013-01-29 07:50:00,
2013-01-29 02:51:00,54.4,48.0,30.03,SSW,206,5.0,8.0,79,0.00,,---,0.00,VWS V14.01,2013-01-29 07:51:00,
2013-01-29 02:52:00,54.4,48.0,30.03,South,180,3.0,10.0,79,0.00,,---,0.00,VWS V14.01,2013-01-29 07:52:00,
2013-01-29 02:53:00,54.4,48.0,30.03,South,180,6.0,10.0,79,0.00,,---,0.00,VWS V14.01,2013-01-29 07:53:00,
2013-01-29 02:54:00,54.4,48.0,30.03,South,180,6.0,8.0,79,0.00,,---,0.00,VWS V14.01,2013-01-29 07:54:00,
2013-01-29 02:55:00,54.4,48.0,30.03,WSW,245,2.0,6.0,79,0.00,,---,0.00,VWS V14.01,2013-01-29 07:55:00,
2013-01-29 02:56:00,54.2,47.8,30.03,West,265,2.0,8.0,79,0.00,,---,0.00,VWS V14.01,2013-01-29 07:56:00,
2013-01-29 02:57:00,54.2,47.8,30.03,South,180,7.0,7.0,79,0.00,,---,0.00,VWS V14.01,2013-01-29 07:57:00,
2013-01-29 02:58:00,54.2,47.8,30.03,South,190,4.0,6.0,79,0.00,,---,0.00,VWS V14.01,2013-01-29 07:58:00,
2013-01-29 02:59:00,54.2,47.8,30.03,SW,234,1.0,7.0,79,0.00,,---,0.00,VWS V14.01,2013-01-29 07:59:00,
2013-01-29 03:00:00,54.2,47.8,30.03,SW,234,1.0,2.0,79,0.00,,---,0.00,VWS V14.01,2013-01-29 08:00:00,
2013-01-29 03:01:00,54.2,47.8,30.03,South,190,4.0,5.0,79,0.00,,---,0.00,VWS V14.01,2013-01-29 08:01:00,
2013-01-29 03:02:00,54.2,48.2,30.03,SSW,205,1.0,6.0,80,0.00,,---,0.00,VWS V14.01,2013-01-29 08:02:00,
2013-01-29 03:03:00,54.2,48.2,30.03,SSW,205,0.0,6.0,80,0.00,,---,0.00,VWS V14.01,2013-01-29 08:03:00,
2013-01-29 03:04:00,54.1,47.7,30.03,WSW,248,2.0,7.0,79,0.00,,---,0.00,VWS V14.01,2013-01-29 08:04:00,
2013-01-29 03:05:00,54.1,48.1,30.03,South,179,2.0,5.0,80,0.00,,---,0.00,VWS V14.01,2013-01-29 08:05:00,
2013-01-29 03:06:00,54.2,48.2,30.03,SW,215,2.0,7.0,80,0.00,,---,0.00,VWS V14.01,2013-01-29 08:06:00,
2013-01-29 03:07:00,54.1,48.1,30.03,West,273,2.0,4.0,80,0.00,,---,0.00,VWS V14.01,2013-01-29 08:07:00,
2013-01-29 03:08:00,54.1,48.1,30.03,West,273,1.0,4.0,80,0.00,,---,0.00,VWS V14.01,2013-01-29 08:08:00,
2013-01-29 03:09:00,54.2,48.2,30.03,South,191,4.0,6.0,80,0.00,,---,0.00,VWS V14.01,2013-01-29 08:09:00,
2013-01-29 03:10:00,54.2,48.2,30.03,South,188,0.0,5.0,80,0.00,,---,0.00,VWS V14.01,2013-01-29 08:10:00,
2013-01-29 03:11:00,54.2,48.2,30.03,SSW,194,6.0,8.0,80,0.00,,---,0.00,VWS V14.01,2013-01-29 08:11:00,
2013-01-29 03:12:00,54.4,48.4,30.03,SSW,205,3.0,6.0,80,0.00,,---,0.00,VWS V14.01,2013-01-29 08:12:00,
2013-01-29 03:13:00,54.4,48.4,30.03,SSW,205,5.0,6.0,80,0.00,,---,0.00,VWS V14.01,2013-01-29 08:13:00,
2013-01-29 03:14:00,54.2,48.2,30.03,SSW,209,0.0,5.0,80,0.00,,---,0.00,VWS V14.01,2013-01-29 08:14:00,
2013-01-29 03:15:00,54.2,47.8,30.03,SSW,209,0.0,0.0,79,0.00,,---,0.00,VWS V14.01,2013-01-29 08:15:00,
2013-01-29 03:16:00,54.2,48.2,30.03,SSW,194,2.0,2.0,80,0.00,,---,0.00,VWS V14.01,2013-01-29 08:16:00,
2013-01-29 03:17:00,54.2,48.5,30.03,SSW,213,3.0,9.0,81,0.00,,---,0.00,VWS V14.01,2013-01-29 08:17:00,
2013-01-29 03:18:00,54.2,48.2,30.03,SSW,213,4.0,9.0,80,0.00,,---,0.00,VWS V14.01,2013-01-29 08:18:00,
2013-01-29 03:19:00,54.2,48.2,30.03,West,262,5.0,6.0,80,0.00,,---,0.00,VWS V14.01,2013-01-29 08:19:00,
2013-01-29 03:20:00,54.2,48.2,30.03,SSE,164,9.0,9.0,80,0.00,,---,0.00,VWS V14.01,2013-01-29 08:20:00,
2013-01-29 03:21:00,54.4,48.7,30.03,South,186,2.0,9.0,81,0.00,,---,0.00,VWS V14.01,2013-01-29 08:21:00,
2013-01-29 03:22:00,54.4,48.4,30.03,SSW,193,3.0,5.0,80,0.00,,---,0.00,VWS V14.01,2013-01-29 08:22:00,
2013-01-29 03:23:00,54.4,48.7,30.03,South,187,4.0,5.0,81,0.00,,---,0.00,VWS V14.01,2013-01-29 08:23:00,
2013-01-29 03:24:00,54.5,48.5,30.03,South,185,4.0,6.0,80,0.00,,---,0.00,VWS V14.01,2013-01-29 08:24:00,
2013-01-29 03:25:00,54.5,48.5,30.03,WSW,252,2.0,9.0,80,0.00,,---,0.00,VWS V14.01,2013-01-29 08:25:00,
2013-01-29 03:26:00,54.5,48.5,30.03,WSW,252,1.0,4.0,80,0.00,,---,0.00,VWS V14.01,2013-01-29 08:26:00,
2013-01-29 03:27:00,54.5,48.5,30.03,SSW,213,1.0,5.0,80,0.00,,---,0.00,VWS V14.01,2013-01-29 08:27:00,
2013-01-29 03:28:00,54.5,48.5,30.03,SSW,213,1.0,5.0,80,0.00,,---,0.00,VWS V14.01,2013-01-29 08:28:00,
2013-01-29 03:29:00,54.5,48.5,30.03,South,188,0.0,10.0,80,0.00,,---,0.00,VWS V14.01,2013-01-29 08:29:00,
2013-01-29 03:30:00,54.5,48.1,30.03,WSW,242,7.0,7.0,79,0.00,,---,0.00,VWS V14.01,2013-01-29 08:30:00,
2013-01-29 03:31:00,54.5,48.5,30.03,WSW,243,3.0,7.0,80,0.00,,---,0.00,VWS V14.01,2013-01-29 08:31:00,
2013-01-29 03:32:00,54.5,48.5,30.03,South,182,6.0,6.0,80,0.00,,---,0.00,VWS V14.01,2013-01-29 08:32:00,
2013-01-29 03:33:00,54.5,48.5,30.03,South,182,2.0,5.0,80,0.00,,---,0.00,VWS V14.01,2013-01-29 08:33:00,
2013-01-29 03:34:00,54.5,48.5,30.03,South,183,0.0,1.0,80,0.00,,---,0.00,VWS V14.01,2013-01-29 08:34:00,
2013-01-29 03:35:00,54.5,48.5,30.03,SSW,195,2.0,5.0,80,0.00,,---,0.00,VWS V14.01,2013-01-29 08:35:00,
2013-01-29 03:36:00,54.5,48.5,30.03,SSW,195,0.0,4.0,80,0.00,,---,0.00,VWS V14.01,2013-01-29 08:36:00,
2013-01-29 03:37:00,54.5,48.5,30.03,SSW,195,0.0,0.0,80,0.00,,---,0.00,VWS V14.01,2013-01-29 08:37:00,
2013-01-29 03:38:00,54.5,48.5,30.03,SSW,195,0.0,0.0,80,0.00,,---,0.00,VWS V14.01,2013-01-29 08:38:00,
2013-01-29 03:39:00,54.5,48.5,30.03,South,182,6.0,10.0,80,0.00,,---,0.00,VWS V14.01,2013-01-29 08:39:00,
2013-01-29 03:40:00,54.5,48.5,30.03,South,186,1.0,6.0,80,0.00,,---,0.00,VWS V14.01,2013-01-29 08:40:00,
2013-01-29 03:41:00,54.5,48.5,30.03,South,189,0.0,3.0,80,0.00,,---,0.00,VWS V14.01,2013-01-29 08:41:00,
2013-01-29 03:42:00,54.5,48.5,30.03,South,174,2.0,7.0,80,0.00,,---,0.00,VWS V14.01,2013-01-29 08:42:00,
2013-01-29 03:43:00,54.5,48.5,30.03,South,174,5.0,7.0,80,0.00,,---,0.00,VWS V14.01,2013-01-29 08:43:00,
2013-01-29 03:44:00,54.5,48.5,30.03,South,190,0.0,4.0,80,0.00,,---,0.00,VWS V14.01,2013-01-29 08:44:00,
2013-01-29 03:45:00,54.5,48.5,30.02,South,190,0.0,5.0,80,0.00,,---,0.00,VWS V14.01,2013-01-29 08:45:00,
2013-01-29 03:46:00,54.5,48.5,30.02,South,190,0.0,1.0,80,0.00,,---,0.00,VWS V14.01,2013-01-29 08:46:00,
2013-01-29 03:47:00,54.5,48.5,30.02,South,190,0.0,0.0,80,0.00,,---,0.00,VWS V14.01,2013-01-29 08:47:00,
2013-01-29 03:48:00,54.5,48.5,30.02,South,189,0.0,0.0,80,0.00,,---,0.00,VWS V14.01,2013-01-29 08:48:00,
2013-01-29 03:49:00,54.4,48.4,30.02,South,190,1.0,1.0,80,0.00,,---,0.00,VWS V14.01,2013-01-29 08:49:00,
2013-01-29 03:50:00,54.4,48.4,30.02,South,183,3.0,5.0,80,0.00,,---,0.00,VWS V14.01,2013-01-29 08:50:00,
2013-01-29 03:51:00,54.4,48.4,30.02,South,191,4.0,5.0,80,0.00,,---,0.00,VWS V14.01,2013-01-29 08:51:00,
2013-01-29 03:52:00,54.4,48.4,30.02,South,190,5.0,5.0,80,0.00,,---,0.00,VWS V14.01,2013-01-29 08:52:00,
2013-01-29 03:53:00,54.4,48.7,30.02,South,184,2.0,5.0,81,0.00,,---,0.00,VWS V14.01,2013-01-29 08:53:00,
2013-01-29 03:54:00,54.2,48.5,30.02,South,184,0.0,2.0,81,0.00,,---,0.00,VWS V14.01,2013-01-29 08:54:00,
2013-01-29 03:55:00,54.2,48.5,30.02,South,184,0.0,1.0,81,0.00,,---,0.00,VWS V14.01,2013-01-29 08:55:00,
2013-01-29 03:56:00,54.2,48.5,30.02,South,184,0.0,1.0,81,0.00,,---,0.00,VWS V14.01,2013-01-29 08:56:00,
2013-01-29 03:57:00,54.2,48.5,30.02,South,178,2.0,4.0,81,0.00,,---,0.00,VWS V14.01,2013-01-29 08:57:00,
2013-01-29 03:58:00,54.2,48.5,30.02,South,178,0.0,0.0,81,0.00,,---,0.00,VWS V14.01,2013-01-29 08:58:00,
2013-01-29 03:59:00,54.1,48.4,30.02,South,178,0.0,0.0,81,0.00,,---,0.00,VWS V14.01,2013-01-29 08:59:00,
2013-01-29 04:01:00,54.1,48.4,30.02,South,178,0.0,0.0,81,0.00,,---,0.00,VWS V14.01,2013-01-29 09:01:00,
2013-01-29 04:02:00,53.9,48.2,30.02,SSE,150,0.0,1.0,81,0.00,,---,0.00,VWS V14.01,2013-01-29 09:02:00,
2013-01-29 04:03:00,53.8,47.8,30.02,SE,128,0.0,3.0,80,0.00,,---,0.00,VWS V14.01,2013-01-29 09:03:00,
2013-01-29 04:04:00,53.5,46.8,30.02,East,95,0.0,4.0,78,0.00,,---,0.00,VWS V14.01,2013-01-29 09:04:00,
2013-01-29 04:05:00,53.3,46.6,30.02,East,88,0.0,4.0,78,0.00,,---,0.00,VWS V14.01,2013-01-29 09:05:00,
2013-01-29 04:06:00,52.9,46.2,30.02,East,88,0.0,1.0,78,0.00,,---,0.00,VWS V14.01,2013-01-29 09:06:00,
2013-01-29 04:07:00,52.8,46.1,30.02,East,88,0.0,0.0,78,0.00,,---,0.00,VWS V14.01,2013-01-29 09:07:00,
2013-01-29 04:08:00,52.5,45.8,30.02,East,88,0.0,0.0,78,0.00,,---,0.00,VWS V14.01,2013-01-29 09:08:00,
2013-01-29 04:09:00,52.2,45.9,30.02,East,88,0.0,0.0,79,0.00,,---,0.00,VWS V14.01,2013-01-29 09:09:00,
2013-01-29 04:10:00,51.9,45.6,30.02,East,88,0.0,0.0,79,0.00,,---,0.00,VWS V14.01,2013-01-29 09:10:00,
2013-01-29 04:11:00,51.7,45.7,30.02,East,88,0.0,2.0,80,0.00,,---,0.00,VWS V14.01,2013-01-29 09:11:00,
2013-01-29 04:12:00,51.6,45.6,30.02,East,88,0.0,1.0,80,0.00,,---,0.00,VWS V14.01,2013-01-29 09:12:00,
2013-01-29 04:13:00,51.1,45.2,30.02,East,88,0.0,0.0,80,0.00,,---,0.00,VWS V14.01,2013-01-29 09:13:00,
2013-01-29 04:14:00,51.0,45.1,30.02,East,88,1.0,2.0,80,0.00,,---,0.00,VWS V14.01,2013-01-29 09:14:00,
2013-01-29 04:15:00,50.7,45.1,30.03,East,88,0.0,1.0,81,0.00,,---,0.00,VWS V14.01,2013-01-29 09:15:00,
2013-01-29 04:16:00,50.5,45.2,30.03,East,88,0.0,0.0,82,0.00,,---,0.00,VWS V14.01,2013-01-29 09:16:00,
2013-01-29 04:17:00,50.4,45.1,30.03,East,88,0.0,0.0,82,0.00,,---,0.00,VWS V14.01,2013-01-29 09:17:00,
2013-01-29 04:18:00,50.1,44.8,30.03,East,88,0.0,0.0,82,0.00,,---,0.00,VWS V14.01,2013-01-29 09:18:00,
2013-01-29 04:19:00,49.9,44.6,30.03,East,88,0.0,0.0,82,0.00,,---,0.00,VWS V14.01,2013-01-29 09:19:00,
2013-01-29 04:20:00,49.8,44.8,30.03,East,88,0.0,0.0,83,0.00,,---,0.00,VWS V14.01,2013-01-29 09:20:00,
2013-01-29 04:21:00,49.6,44.7,30.03,East,88,0.0,0.0,83,0.00,,---,0.00,VWS V14.01,2013-01-29 09:21:00,
2013-01-29 04:22:00,49.5,44.6,30.03,East,88,0.0,0.0,83,0.00,,---,0.00,VWS V14.01,2013-01-29 09:22:00,
2013-01-29 04:23:00,49.4,44.8,30.03,East,88,0.0,0.0,84,0.00,,---,0.00,VWS V14.01,2013-01-29 09:23:00,
2013-01-29 04:24:00,49.4,44.8,30.03,East,88,0.0,0.0,84,0.00,,---,0.00,VWS V14.01,2013-01-29 09:24:00,
2013-01-29 04:25:00,49.2,44.6,30.03,East,87,0.0,0.0,84,0.00,,---,0.00,VWS V14.01,2013-01-29 09:25:00,
2013-01-29 04:26:00,49.1,44.5,30.03,East,88,0.0,0.0,84,0.00,,---,0.00,VWS V14.01,2013-01-29 09:26:00,
2013-01-29 04:27:00,48.9,44.3,30.03,East,87,0.0,0.0,84,0.00,,---,0.00,VWS V14.01,2013-01-29 09:27:00,
2013-01-29 04:28:00,48.8,44.5,30.03,East,88,0.0,0.0,85,0.00,,---,0.00,VWS V14.01,2013-01-29 09:28:00,
2013-01-29 04:29:00,48.8,44.5,30.03,East,88,0.0,0.0,85,0.00,,---,0.00,VWS V14.01,2013-01-29 09:29:00,
2013-01-29 04:30:00,48.8,44.5,30.03,East,88,0.0,0.0,85,0.00,,---,0.00,VWS V14.01,2013-01-29 09:30:00,
2013-01-29 04:31:00,48.6,44.6,30.03,East,88,0.0,0.0,86,0.00,,---,0.00,VWS V14.01,2013-01-29 09:31:00,
2013-01-29 04:32:00,48.6,44.3,30.03,East,88,0.0,0.0,85,0.00,,---,0.00,VWS V14.01,2013-01-29 09:32:00,
2013-01-29 04:33:00,48.5,44.5,30.03,East,88,0.0,0.0,86,0.00,,---,0.00,VWS V14.01,2013-01-29 09:33:00,
2013-01-29 04:34:00,48.3,44.3,30.03,East,88,0.0,0.0,86,0.00,,---,0.00,VWS V14.01,2013-01-29 09:34:00,
2013-01-29 04:35:00,48.3,44.3,30.03,East,88,0.0,0.0,86,0.00,,---,0.00,VWS V14.01,2013-01-29 09:35:00,
2013-01-29 04:36:00,48.2,44.2,30.03,East,88,0.0,0.0,86,0.00,,---,0.00,VWS V14.01,2013-01-29 09:36:00,
2013-01-29 04:37:00,48.2,44.5,30.03,East,88,0.0,0.0,87,0.00,,---,0.00,VWS V14.01,2013-01-29 09:37:00,
2013-01-29 04:38:00,48.2,44.5,30.03,East,88,0.0,0.0,87,0.00,,---,0.00,VWS V14.01,2013-01-29 09:38:00,
2013-01-29 04:39:00,48.0,44.3,30.03,East,88,0.0,0.0,87,0.00,,---,0.00,VWS V14.01,2013-01-29 09:39:00,
2013-01-29 04:40:00,48.0,44.3,30.03,East,88,0.0,0.0,87,0.00,,---,0.00,VWS V14.01,2013-01-29 09:40:00,
2013-01-29 04:41:00,47.9,44.2,30.03,East,88,0.0,0.0,87,0.00,,---,0.00,VWS V14.01,2013-01-29 09:41:00,
2013-01-29 04:42:00,47.9,44.2,30.03,East,88,0.0,0.0,87,0.00,,---,0.00,VWS V14.01,2013-01-29 09:42:00,
2013-01-29 04:43:00,47.7,44.0,30.03,East,88,0.0,0.0,87,0.00,,---,0.00,VWS V14.01,2013-01-29 09:43:00,
2013-01-29 04:44:00,47.6,43.6,30.03,East,88,0.0,0.0,86,0.00,,---,0.00,VWS V14.01,2013-01-29 09:44:00,
2013-01-29 04:45:00,47.4,43.7,30.04,East,88,0.0,0.0,87,0.00,,---,0.00,VWS V14.01,2013-01-29 09:45:00,
2013-01-29 04:46:00,47.4,43.7,30.04,East,88,0.0,0.0,87,0.00,,---,0.00,VWS V14.01,2013-01-29 09:46:00,
2013-01-29 04:47:00,47.3,43.6,30.04,East,88,0.0,0.0,87,0.00,,---,0.00,VWS V14.01,2013-01-29 09:47:00,
2013-01-29 04:48:00,47.1,43.4,30.04,East,88,0.0,0.0,87,0.00,,---,0.00,VWS V14.01,2013-01-29 09:48:00,
2013-01-29 04:49:00,47.1,43.4,30.04,East,88,0.0,0.0,87,0.00,,---,0.00,VWS V14.01,2013-01-29 09:49:00,
2013-01-29 04:50:00,47.0,43.6,30.04,East,88,0.0,0.0,88,0.00,,---,0.00,VWS V14.01,2013-01-29 09:50:00,
2013-01-29 04:51:00,47.0,43.6,30.04,East,88,0.0,0.0,88,0.00,,---,0.00,VWS V14.01,2013-01-29 09:51:00,
2013-01-29 04:52:00,46.8,43.4,30.04,East,88,0.0,0.0,88,0.00,,---,0.00,VWS V14.01,2013-01-29 09:52:00,
2013-01-29 04:53:00,46.8,43.7,30.04,East,88,0.0,0.0,89,0.00,,---,0.00,VWS V14.01,2013-01-29 09:53:00,
2013-01-29 04:54:00,47.0,43.9,30.04,East,88,0.0,0.0,89,0.00,,---,0.00,VWS V14.01,2013-01-29 09:54:00,
2013-01-29 04:55:00,47.0,43.9,30.04,East,88,0.0,1.0,89,0.00,,---,0.00,VWS V14.01,2013-01-29 09:55:00,
2013-01-29 04:56:00,47.0,44.2,30.04,ESE,107,3.0,4.0,90,0.00,,---,0.00,VWS V14.01,2013-01-29 09:56:00,
2013-01-29 04:57:00,47.3,44.5,30.04,ESE,107,0.0,3.0,90,0.00,,---,0.00,VWS V14.01,2013-01-29 09:57:00,
2013-01-29 04:58:00,47.3,44.5,30.04,ESE,107,0.0,0.0,90,0.00,,---,0.00,VWS V14.01,2013-01-29 09:58:00,
2013-01-29 04:59:00,47.3,44.5,30.04,ESE,107,0.0,0.0,90,0.00,,---,0.00,VWS V14.01,2013-01-29 09:59:00,
2013-01-29 05:00:00,47.3,44.5,30.04,ESE,107,0.0,0.0,90,0.00,,---,0.00,VWS V14.01,2013-01-29 10:00:00,
2013-01-29 05:01:00,47.3,44.5,30.04,ESE,107,0.0,0.0,90,0.00,,---,0.00,VWS V14.01,2013-01-29 10:01:00,
2013-01-29 05:02:00,47.3,44.5,30.04,ESE,107,1.0,1.0,90,0.00,,---,0.00,VWS V14.01,2013-01-29 10:02:00,
2013-01-29 05:03:00,47.6,45.1,30.04,ESE,107,2.0,2.0,91,0.00,,---,0.00,VWS V14.01,2013-01-29 10:03:00,
2013-01-29 05:04:00,47.7,45.5,30.04,ESE,107,0.0,2.0,92,0.00,,---,0.00,VWS V14.01,2013-01-29 10:04:00,
2013-01-29 05:05:00,48.2,46.0,30.04,ESE,107,2.0,3.0,92,0.00,,---,0.00,VWS V14.01,2013-01-29 10:05:00,
2013-01-29 05:06:00,48.5,46.6,30.04,ESE,107,2.0,5.0,93,0.00,,---,0.00,VWS V14.01,2013-01-29 10:06:00,
2013-01-29 05:07:00,48.6,46.7,30.04,ESE,107,0.0,2.0,93,0.00,,---,0.00,VWS V14.01,2013-01-29 10:07:00,
2013-01-29 05:08:00,48.8,46.6,30.04,ESE,107,0.0,1.0,92,0.00,,---,0.00,VWS V14.01,2013-01-29 10:08:00,
2013-01-29 05:09:00,48.9,46.7,30.04,ESE,107,1.0,2.0,92,0.00,,---,0.00,VWS V14.01,2013-01-29 10:09:00,
2013-01-29 05:10:00,49.1,47.2,30.04,ESE,107,1.0,4.0,93,0.00,,---,0.00,VWS V14.01,2013-01-29 10:10:00,
2013-01-29 05:11:00,49.4,47.5,30.04,ESE,107,2.0,3.0,93,0.00,,---,0.00,VWS V14.01,2013-01-29 10:11:00,
2013-01-29 05:12:00,49.5,47.6,30.04,ESE,107,1.0,2.0,93,0.00,,---,0.00,VWS V14.01,2013-01-29 10:12:00,
2013-01-29 05:13:00,49.6,47.7,30.04,ESE,116,0.0,2.0,93,0.00,,---,0.00,VWS V14.01,2013-01-29 10:13:00,
2013-01-29 05:14:00,49.8,47.6,30.04,ESE,116,0.0,1.0,92,0.00,,---,0.00,VWS V14.01,2013-01-29 10:14:00,
2013-01-29 05:15:00,49.9,47.7,30.04,ESE,116,0.0,0.0,92,0.00,,---,0.00,VWS V14.01,2013-01-29 10:15:00,
2013-01-29 05:16:00,49.9,47.7,30.04,ESE,116,0.0,0.0,92,0.00,,---,0.00,VWS V14.01,2013-01-29 10:16:00,
2013-01-29 05:17:00,50.1,47.9,30.04,ESE,117,1.0,2.0,92,0.00,,---,0.00,VWS V14.01,2013-01-29 10:17:00,
2013-01-29 05:18:00,50.2,48.0,30.04,ESE,117,2.0,2.0,92,0.00,,---,0.00,VWS V14.01,2013-01-29 10:18:00,
2013-01-29 05:19:00,50.4,48.2,30.04,ESE,117,1.0,2.0,92,0.00,,---,0.00,VWS V14.01,2013-01-29 10:19:00,
2013-01-29 05:20:00,50.4,48.2,30.04,ESE,117,1.0,2.0,92,0.00,,---,0.00,VWS V14.01,2013-01-29 10:20:00,
2013-01-29 05:21:00,50.5,48.3,30.04,ESE,117,1.0,2.0,92,0.00,,---,0.00,VWS V14.01,2013-01-29 10:21:00,
2013-01-29 05:22:00,50.5,48.3,30.04,ESE,121,2.0,2.0,92,0.00,,---,0.00,VWS V14.01,2013-01-29 10:22:00,
2013-01-29 05:23:00,50.7,48.2,30.04,ESE,123,4.0,5.0,91,0.00,,---,0.00,VWS V14.01,2013-01-29 10:23:00,
2013-01-29 05:24:00,50.8,48.3,30.04,ESE,123,1.0,4.0,91,0.00,,---,0.00,VWS V14.01,2013-01-29 10:24:00,
2013-01-29 05:25:00,50.8,48.3,30.04,ESE,123,1.0,3.0,91,0.00,,---,0.00,VWS V14.01,2013-01-29 10:25:00,
2013-01-29 05:26:00,51.0,48.5,30.04,South,171,0.0,5.0,91,0.00,,---,0.00,VWS V14.01,2013-01-29 10:26:00,
2013-01-29 05:27:00,51.0,48.5,30.04,South,171,4.0,4.0,91,0.00,,---,0.00,VWS V14.01,2013-01-29 10:27:00,
2013-01-29 05:28:00,51.1,48.3,30.04,SSE,168,0.0,2.0,90,0.00,,---,0.00,VWS V14.01,2013-01-29 10:28:00,
2013-01-29 05:29:00,51.0,48.2,30.04,SSE,168,0.0,0.0,90,0.00,,---,0.00,VWS V14.01,2013-01-29 10:29:00,
2013-01-29 05:30:00,51.0,48.2,30.04,SSE,165,0.0,2.0,90,0.00,,---,0.00,VWS V14.01,2013-01-29 10:30:00,
2013-01-29 05:31:00,51.0,48.2,30.04,SSE,165,0.0,3.0,90,0.00,,---,0.00,VWS V14.01,2013-01-29 10:31:00,
2013-01-29 05:32:00,51.0,48.2,30.04,SSE,165,0.0,0.0,90,0.00,,---,0.00,VWS V14.01,2013-01-29 10:32:00,
2013-01-29 05:33:00,51.0,47.9,30.04,SSE,165,0.0,1.0,89,0.00,,---,0.00,VWS V14.01,2013-01-29 10:33:00,
2013-01-29 05:34:00,50.8,47.7,30.04,South,173,0.0,2.0,89,0.00,,---,0.00,VWS V14.01,2013-01-29 10:34:00,
2013-01-29 05:35:00,50.7,47.6,30.04,South,174,4.0,4.0,89,0.00,,---,0.00,VWS V14.01,2013-01-29 10:35:00,
2013-01-29 05:36:00,50.5,47.1,30.04,South,173,0.0,5.0,88,0.00,,---,0.00,VWS V14.01,2013-01-29 10:36:00,
2013-01-29 05:37:00,50.4,47.0,30.04,South,173,0.0,0.0,88,0.00,,---,0.00,VWS V14.01,2013-01-29 10:37:00,
2013-01-29 05:38:00,50.2,46.2,30.04,South,173,0.0,0.0,86,0.00,,---,0.00,VWS V14.01,2013-01-29 10:38:00,
2013-01-29 05:39:00,49.9,45.9,30.04,South,173,0.0,0.0,86,0.00,,---,0.00,VWS V14.01,2013-01-29 10:39:00,
2013-01-29 05:40:00,49.8,46.1,30.04,South,173,0.0,0.0,87,0.00,,---,0.00,VWS V14.01,2013-01-29 10:40:00,
2013-01-29 05:41:00,49.8,46.1,30.04,South,173,0.0,0.0,87,0.00,,---,0.00,VWS V14.01,2013-01-29 10:41:00,
2013-01-29 05:42:00,49.6,46.2,30.04,South,173,0.0,0.0,88,0.00,,---,0.00,VWS V14.01,2013-01-29 10:42:00,
2013-01-29 05:43:00,49.5,45.8,30.04,South,173,0.0,0.0,87,0.00,,---,0.00,VWS V14.01,2013-01-29 10:43:00,
2013-01-29 05:44:00,49.4,45.7,30.04,South,173,0.0,0.0,87,0.00,,---,0.00,VWS V14.01,2013-01-29 10:44:00,
2013-01-29 05:45:00,49.2,45.5,30.04,South,173,0.0,0.0,87,0.00,,---,0.00,VWS V14.01,2013-01-29 10:45:00,
2013-01-29 05:46:00,49.1,45.4,30.04,South,173,0.0,0.0,87,0.00,,---,0.00,VWS V14.01,2013-01-29 10:46:00,
2013-01-29 05:47:00,49.1,45.4,30.04,South,173,0.0,0.0,87,0.00,,---,0.00,VWS V14.01,2013-01-29 10:47:00,
2013-01-29 05:48:00,48.8,44.8,30.04,South,173,0.0,1.0,86,0.00,,---,0.00,VWS V14.01,2013-01-29 10:48:00,
2013-01-29 05:49:00,48.5,44.8,30.04,South,173,0.0,0.0,87,0.00,,---,0.00,VWS V14.01,2013-01-29 10:49:00,
2013-01-29 05:50:00,48.3,44.6,30.04,South,173,0.0,0.0,87,0.00,,---,0.00,VWS V14.01,2013-01-29 10:50:00,
2013-01-29 05:51:00,48.2,44.5,30.04,South,173,0.0,0.0,87,0.00,,---,0.00,VWS V14.01,2013-01-29 10:51:00,
2013-01-29 05:52:00,48.0,44.3,30.04,South,173,0.0,0.0,87,0.00,,---,0.00,VWS V14.01,2013-01-29 10:52:00,
2013-01-29 05:53:00,47.9,44.2,30.04,South,173,0.0,0.0,87,0.00,,---,0.00,VWS V14.01,2013-01-29 10:53:00,
2013-01-29 05:54:00,47.9,44.5,30.04,South,173,0.0,0.0,88,0.00,,---,0.00,VWS V14.01,2013-01-29 10:54:00,
2013-01-29 05:55:00,47.7,44.3,30.04,South,173,0.0,0.0,88,0.00,,---,0.00,VWS V14.01,2013-01-29 10:55:00,
2013-01-29 05:56:00,47.7,44.6,30.04,South,173,0.0,0.0,89,0.00,,---,0.00,VWS V14.01,2013-01-29 10:56:00,
2013-01-29 05:57:00,47.7,44.9,30.04,South,173,0.0,1.0,90,0.00,,---,0.00,VWS V14.01,2013-01-29 10:57:00,
2013-01-29 05:58:00,47.7,44.9,30.04,South,173,0.0,0.0,90,0.00,,---,0.00,VWS V14.01,2013-01-29 10:58:00,
2013-01-29 05:59:00,47.7,44.9,30.04,South,173,0.0,0.0,90,0.00,,---,0.00,VWS V14.01,2013-01-29 10:59:00,
2013-01-29 06:00:00,47.7,44.9,30.05,South,173,0.0,0.0,90,0.00,,---,0.00,VWS V14.01,2013-01-29 11:00:00,
2013-01-29 06:01:00,47.7,44.9,30.05,South,173,0.0,0.0,90,0.00,,---,0.00,VWS V14.01,2013-01-29 11:01:00,
2013-01-29 06:02:00,47.7,44.9,30.05,South,173,0.0,0.0,90,0.00,,---,0.00,VWS V14.01,2013-01-29 11:02:00,
2013-01-29 06:03:00,47.6,44.8,30.05,South,173,0.0,0.0,90,0.00,,---,0.00,VWS V14.01,2013-01-29 11:03:00,
2013-01-29 06:04:00,47.6,44.8,30.05,South,173,0.0,0.0,90,0.00,,---,0.00,VWS V14.01,2013-01-29 11:04:00,
2013-01-29 06:05:00,47.6,44.8,30.05,South,173,0.0,0.0,90,0.00,,---,0.00,VWS V14.01,2013-01-29 11:05:00,
2013-01-29 06:06:00,47.4,44.6,30.05,South,173,0.0,0.0,90,0.00,,---,0.00,VWS V14.01,2013-01-29 11:06:00,
2013-01-29 06:07:00,47.4,44.6,30.05,South,173,0.0,0.0,90,0.00,,---,0.00,VWS V14.01,2013-01-29 11:07:00,
2013-01-29 06:08:00,47.3,44.5,30.05,South,173,0.0,0.0,90,0.00,,---,0.00,VWS V14.01,2013-01-29 11:08:00,
2013-01-29 06:09:00,47.3,44.5,30.05,South,173,0.0,0.0,90,0.00,,---,0.00,VWS V14.01,2013-01-29 11:09:00,
2013-01-29 06:10:00,47.1,44.3,30.05,South,173,0.0,0.0,90,0.00,,---,0.00,VWS V14.01,2013-01-29 11:10:00,
2013-01-29 06:11:00,47.1,44.3,30.05,South,173,0.0,0.0,90,0.00,,---,0.00,VWS V14.01,2013-01-29 11:11:00,
2013-01-29 06:12:00,47.1,44.3,30.05,South,173,0.0,0.0,90,0.00,,---,0.00,VWS V14.01,2013-01-29 11:12:00,
2013-01-29 06:13:00,47.1,44.6,30.05,South,173,0.0,0.0,91,0.00,,---,0.00,VWS V14.01,2013-01-29 11:13:00,
2013-01-29 06:14:00,47.0,44.2,30.05,South,173,0.0,0.0,90,0.00,,---,0.00,VWS V14.01,2013-01-29 11:14:00,
2013-01-29 06:15:00,47.0,44.5,30.05,South,173,0.0,0.0,91,0.00,,---,0.00,VWS V14.01,2013-01-29 11:15:00,
2013-01-29 06:16:00,47.0,44.5,30.05,South,173,0.0,1.0,91,0.00,,---,0.00,VWS V14.01,2013-01-29 11:16:00,
2013-01-29 06:17:00,47.0,44.5,30.05,South,173,0.0,0.0,91,0.00,,---,0.00,VWS V14.01,2013-01-29 11:17:00,
2013-01-29 06:18:00,47.0,44.5,30.05,South,173,0.0,0.0,91,0.00,,---,0.00,VWS V14.01,2013-01-29 11:18:00,
2013-01-29 06:19:00,47.0,44.5,30.05,South,173,0.0,2.0,91,0.00,,---,0.00,VWS V14.01,2013-01-29 11:19:00,
2013-01-29 06:20:00,47.0,44.8,30.05,South,173,1.0,2.0,92,0.00,,---,0.00,VWS V14.01,2013-01-29 11:20:00,
2013-01-29 06:21:00,47.1,44.9,30.05,SE,132,0.0,2.0,92,0.00,,---,0.00,VWS V14.01,2013-01-29 11:21:00,
2013-01-29 06:22:00,47.3,45.1,30.05,SE,132,1.0,1.0,92,0.00,,---,0.00,VWS V14.01,2013-01-29 11:22:00,
2013-01-29 06:23:00,46.8,44.0,30.05,SE,132,0.0,0.0,90,0.00,,---,0.00,VWS V14.01,2013-01-29 11:23:00,
2013-01-29 06:24:00,46.7,43.9,30.05,SE,132,0.0,0.0,90,0.00,,---,0.00,VWS V14.01,2013-01-29 11:24:00,
2013-01-29 06:25:00,46.5,44.0,30.05,SE,132,0.0,0.0,91,0.00,,---,0.00,VWS V14.01,2013-01-29 11:25:00,
2013-01-29 06:26:00,46.4,43.9,30.05,SE,132,0.0,0.0,91,0.00,,---,0.00,VWS V14.01,2013-01-29 11:26:00,
2013-01-29 06:27:00,46.4,43.9,30.05,SE,132,0.0,0.0,91,0.00,,---,0.00,VWS V14.01,2013-01-29 11:27:00,
2013-01-29 06:28:00,46.4,43.9,30.05,SE,132,0.0,0.0,91,0.00,,---,0.00,VWS V14.01,2013-01-29 11:28:00,
2013-01-29 06:29:00,46.5,44.3,30.05,SE,132,0.0,2.0,92,0.00,,---,0.00,VWS V14.01,2013-01-29 11:29:00,
2013-01-29 06:30:00,46.5,44.3,30.05,SE,132,0.0,0.0,92,0.00,,---,0.00,VWS V14.01,2013-01-29 11:30:00,
2013-01-29 06:31:00,46.5,44.3,30.05,SE,132,0.0,0.0,92,0.00,,---,0.00,VWS V14.01,2013-01-29 11:31:00,
2013-01-29 06:32:00,46.5,44.3,30.05,SE,132,0.0,0.0,92,0.00,,---,0.00,VWS V14.01,2013-01-29 11:32:00,
2013-01-29 06:33:00,46.4,44.2,30.05,SE,132,0.0,0.0,92,0.00,,---,0.00,VWS V14.01,2013-01-29 11:33:00,
2013-01-29 06:34:00,46.4,44.2,30.05,SE,132,0.0,0.0,92,0.00,,---,0.00,VWS V14.01,2013-01-29 11:34:00,
2013-01-29 06:35:00,46.2,44.0,30.05,SE,132,0.0,0.0,92,0.00,,---,0.00,VWS V14.01,2013-01-29 11:35:00,
2013-01-29 06:36:00,46.2,44.0,30.05,SE,132,0.0,0.0,92,0.00,,---,0.00,VWS V14.01,2013-01-29 11:36:00,
2013-01-29 06:37:00,46.1,43.9,30.05,SE,132,0.0,0.0,92,0.00,,---,0.00,VWS V14.01,2013-01-29 11:37:00,
2013-01-29 06:38:00,46.1,43.9,30.05,SE,132,0.0,0.0,92,0.00,,---,0.00,VWS V14.01,2013-01-29 11:38:00,
2013-01-29 06:39:00,46.0,43.8,30.05,SE,132,0.0,0.0,92,0.00,,---,0.00,VWS V14.01,2013-01-29 11:39:00,
2013-01-29 06:40:00,46.0,43.8,30.05,SE,132,0.0,0.0,92,0.00,,---,0.00,VWS V14.01,2013-01-29 11:40:00,
2013-01-29 06:41:00,45.8,43.6,30.05,SE,132,0.0,0.0,92,0.00,,---,0.00,VWS V14.01,2013-01-29 11:41:00,
2013-01-29 06:42:00,45.7,43.2,30.05,SE,132,0.0,0.0,91,0.00,,---,0.00,VWS V14.01,2013-01-29 11:42:00,
2013-01-29 06:43:00,45.7,43.5,30.05,SE,132,0.0,0.0,92,0.00,,---,0.00,VWS V14.01,2013-01-29 11:43:00,
2013-01-29 06:44:00,45.5,43.3,30.05,SE,132,0.0,0.0,92,0.00,,---,0.00,VWS V14.01,2013-01-29 11:44:00,
2013-01-29 06:45:00,45.5,43.3,30.06,SE,132,0.0,0.0,92,0.00,,---,0.00,VWS V14.01,2013-01-29 11:45:00,
2013-01-29 06:46:00,45.5,43.3,30.06,SE,132,0.0,0.0,92,0.00,,---,0.00,VWS V14.01,2013-01-29 11:46:00,
2013-01-29 06:47:00,45.5,43.3,30.06,SE,132,0.0,1.0,92,0.00,,---,0.00,VWS V14.01,2013-01-29 11:47:00,
2013-01-29 06:48:00,45.5,43.6,30.06,SE,132,0.0,0.0,93,0.00,,---,0.00,VWS V14.01,2013-01-29 11:48:00,
2013-01-29 06:49:00,45.4,43.2,30.06,SE,132,0.0,0.0,92,0.00,,---,0.00,VWS V14.01,2013-01-29 11:49:00,
2013-01-29 06:50:00,45.4,43.5,30.06,SE,132,0.0,1.0,93,0.00,,---,0.00,VWS V14.01,2013-01-29 11:50:00,
2013-01-29 06:51:00,45.4,43.5,30.06,SE,132,0.0,0.0,93,0.00,,---,0.00,VWS V14.01,2013-01-29 11:51:00,
2013-01-29 06:52:00,45.4,43.5,30.06,SE,132,0.0,0.0,93,0.00,,---,0.00,VWS V14.01,2013-01-29 11:52:00,
2013-01-29 06:53:00,45.5,43.6,30.06,SE,132,1.0,2.0,93,0.00,,---,0.00,VWS V14.01,2013-01-29 11:53:00,
2013-01-29 06:54:00,45.7,43.8,30.06,SE,132,0.0,1.0,93,0.00,,---,0.00,VWS V14.01,2013-01-29 11:54:00,
2013-01-29 06:55:00,46.0,44.4,30.06,SE,132,0.0,0.0,94,0.00,,---,0.00,VWS V14.01,2013-01-29 11:55:00,
2013-01-29 06:56:00,46.1,44.5,30.06,SE,140,2.0,5.0,94,0.00,,---,0.00,VWS V14.01,2013-01-29 11:56:00,
2013-01-29 06:57:00,46.4,44.8,30.06,SE,140,0.0,2.0,94,0.00,,---,0.00,VWS V14.01,2013-01-29 11:57:00,
2013-01-29 06:58:00,46.8,45.5,30.06,SE,143,2.0,4.0,95,0.00,,---,0.00,VWS V14.01,2013-01-29 11:58:00,
2013-01-29 06:59:00,47.4,46.0,30.06,South,171,0.0,6.0,95,0.00,,---,0.00,VWS V14.01,2013-01-29 11:59:00,
2013-01-29 07:00:00,47.7,46.3,30.06,South,171,2.0,3.0,95,0.00,,---,0.00,VWS V14.01,2013-01-29 12:00:00,
2013-01-29 07:01:00,48.2,46.8,30.06,South,171,0.0,2.0,95,0.00,,---,0.00,VWS V14.01,2013-01-29 12:01:00,
2013-01-29 07:02:00,48.5,47.1,30.06,South,171,4.0,4.0,95,0.00,,---,0.00,VWS V14.01,2013-01-29 12:02:00,
2013-01-29 07:03:00,48.9,47.5,30.06,South,171,0.0,2.0,95,0.00,,---,0.00,VWS V14.01,2013-01-29 12:03:00,
2013-01-29 07:04:00,49.1,47.7,30.06,South,171,0.0,2.0,95,0.00,,---,0.00,VWS V14.01,2013-01-29 12:04:00,
2013-01-29 07:05:00,49.2,47.8,30.06,South,171,0.0,2.0,95,0.00,,---,0.00,VWS V14.01,2013-01-29 12:05:00,
2013-01-29 07:06:00,49.4,48.0,30.06,South,171,4.0,4.0,95,0.00,,---,0.00,VWS V14.01,2013-01-29 12:06:00,
2013-01-29 07:07:00,49.5,48.1,30.06,South,172,0.0,4.0,95,0.00,,---,0.00,VWS V14.01,2013-01-29 12:07:00,
2013-01-29 07:08:00,49.6,48.2,30.06,South,172,2.0,2.0,95,0.00,,---,0.00,VWS V14.01,2013-01-29 12:08:00,
2013-01-29 07:09:00,49.8,48.4,30.06,South,172,0.0,2.0,95,0.00,,---,0.00,VWS V14.01,2013-01-29 12:09:00,
2013-01-29 07:10:00,49.9,48.2,30.06,South,172,0.0,0.0,94,0.00,,---,0.00,VWS V14.01,2013-01-29 12:10:00,
2013-01-29 07:11:00,49.9,48.2,30.06,South,172,0.0,0.0,94,0.00,,---,0.00,VWS V14.01,2013-01-29 12:11:00,
2013-01-29 07:12:00,49.9,48.2,30.06,South,172,0.0,0.0,94,0.00,,---,0.00,VWS V14.01,2013-01-29 12:12:00,
2013-01-29 07:13:00,49.8,47.9,30.06,South,172,0.0,0.0,93,0.00,,---,0.00,VWS V14.01,2013-01-29 12:13:00,
2013-01-29 07:14:00,49.9,48.0,30.06,South,172,0.0,0.0,93,0.00,,---,0.00,VWS V14.01,2013-01-29 12:14:00,
2013-01-29 07:15:00,49.8,48.2,30.06,South,172,0.0,0.0,94,0.00,,---,0.00,VWS V14.01,2013-01-29 12:15:00,
2013-01-29 07:16:00,49.8,47.9,30.06,South,172,0.0,1.0,93,0.00,,---,0.00,VWS V14.01,2013-01-29 12:16:00,
2013-01-29 07:17:00,49.8,47.9,30.06,South,172,0.0,2.0,93,0.00,,---,0.00,VWS V14.01,2013-01-29 12:17:00,
2013-01-29 07:18:00,49.8,47.9,30.06,South,172,0.0,1.0,93,0.00,,---,0.00,VWS V14.01,2013-01-29 12:18:00,
2013-01-29 07:19:00,49.8,47.9,30.06,South,172,0.0,0.0,93,0.00,,---,0.00,VWS V14.01,2013-01-29 12:19:00,
2013-01-29 07:20:00,49.6,47.7,30.06,South,172,0.0,0.0,93,0.00,,---,0.00,VWS V14.01,2013-01-29 12:20:00,
2013-01-29 07:21:00,49.6,47.7,30.06,South,172,0.0,1.0,93,0.00,,---,0.00,VWS V14.01,2013-01-29 12:21:00,
2013-01-29 07:22:00,49.6,47.7,30.06,South,172,0.0,0.0,93,0.00,,---,0.00,VWS V14.01,2013-01-29 12:22:00,
2013-01-29 07:23:00,49.5,47.6,30.06,South,172,0.0,0.0,93,0.00,,---,0.00,VWS V14.01,2013-01-29 12:23:00,
2013-01-29 07:24:00,49.5,47.6,30.06,South,172,0.0,0.0,93,0.00,,---,0.00,VWS V14.01,2013-01-29 12:24:00,
2013-01-29 07:25:00,49.4,47.5,30.06,South,172,0.0,0.0,93,0.00,,---,0.00,VWS V14.01,2013-01-29 12:25:00,
2013-01-29 07:26:00,49.4,47.5,30.06,South,172,0.0,0.0,93,0.00,,---,0.00,VWS V14.01,2013-01-29 12:26:00,
2013-01-29 07:27:00,49.4,47.5,30.06,South,172,0.0,0.0,93,0.00,,---,0.00,VWS V14.01,2013-01-29 12:27:00,
2013-01-29 07:28:00,49.2,47.3,30.06,South,172,0.0,0.0,93,0.00,,---,0.00,VWS V14.01,2013-01-29 12:28:00,
2013-01-29 07:29:00,49.2,47.3,30.06,South,172,0.0,0.0,93,0.00,,---,0.00,VWS V14.01,2013-01-29 12:29:00,
2013-01-29 07:30:00,49.2,47.3,30.06,South,172,0.0,0.0,93,0.00,,---,0.00,VWS V14.01,2013-01-29 12:30:00,
2013-01-29 07:31:00,49.2,47.3,30.06,South,172,0.0,0.0,93,0.00,,---,0.00,VWS V14.01,2013-01-29 12:31:00,
2013-01-29 07:32:00,49.2,47.3,30.06,South,172,0.0,0.0,93,0.00,,---,0.00,VWS V14.01,2013-01-29 12:32:00,
2013-01-29 07:33:00,49.2,47.3,30.06,South,172,0.0,0.0,93,0.00,,---,0.00,VWS V14.01,2013-01-29 12:33:00,
2013-01-29 07:34:00,49.2,47.3,30.06,South,172,0.0,0.0,93,0.00,,---,0.00,VWS V14.01,2013-01-29 12:34:00,
2013-01-29 07:35:00,49.2,47.3,30.06,South,172,0.0,0.0,93,0.00,,---,0.00,VWS V14.01,2013-01-29 12:35:00,
2013-01-29 07:36:00,49.2,47.3,30.06,South,172,0.0,0.0,93,0.00,,---,0.00,VWS V14.01,2013-01-29 12:36:00,
2013-01-29 07:37:00,49.2,47.3,30.06,South,172,0.0,0.0,93,0.00,,---,0.00,VWS V14.01,2013-01-29 12:37:00,
2013-01-29 07:38:00,49.5,47.8,30.06,South,172,0.0,0.0,94,0.00,,---,0.00,VWS V14.01,2013-01-29 12:38:00,
2013-01-29 07:39:00,49.6,48.0,30.06,South,172,0.0,2.0,94,0.00,,---,0.00,VWS V14.01,2013-01-29 12:39:00,
2013-01-29 07:40:00,49.8,48.2,30.06,South,172,0.0,0.0,94,0.00,,---,0.00,VWS V14.01,2013-01-29 12:40:00,
2013-01-29 07:41:00,49.8,47.9,30.06,South,172,0.0,1.0,93,0.00,,---,0.00,VWS V14.01,2013-01-29 12:41:00,
2013-01-29 07:42:00,49.9,48.0,30.06,South,172,0.0,1.0,93,0.00,,---,0.00,VWS V14.01,2013-01-29 12:42:00,
2013-01-29 07:43:00,50.1,48.4,30.06,South,172,0.0,0.0,94,0.00,,---,0.00,VWS V14.01,2013-01-29 12:43:00,
2013-01-29 07:44:00,50.1,48.2,30.06,South,172,1.0,1.0,93,0.00,,---,0.00,VWS V14.01,2013-01-29 12:44:00,
2013-01-29 07:45:00,50.2,48.3,30.07,South,172,0.0,1.0,93,0.00,,---,0.00,VWS V14.01,2013-01-29 12:45:00,
2013-01-29 07:46:00,50.4,48.5,30.07,South,172,0.0,1.0,93,0.00,,---,0.00,VWS V14.01,2013-01-29 12:46:00,
2013-01-29 07:47:00,50.4,48.5,30.07,South,172,0.0,0.0,93,0.00,,---,0.00,VWS V14.01,2013-01-29 12:47:00,
2013-01-29 07:48:00,50.4,48.5,30.07,South,172,0.0,1.0,93,0.00,,---,0.00,VWS V14.01,2013-01-29 12:48:00,
2013-01-29 07:49:00,50.5,48.6,30.07,South,172,0.0,1.0,93,0.00,,---,0.00,VWS V14.01,2013-01-29 12:49:00,
2013-01-29 07:50:00,50.5,48.6,30.07,South,172,0.0,2.0,93,0.00,,---,0.00,VWS V14.01,2013-01-29 12:50:00,
2013-01-29 07:51:00,50.7,48.8,30.07,South,172,0.0,1.0,93,0.00,,---,0.00,VWS V14.01,2013-01-29 12:51:00,
2013-01-29 07:52:00,50.7,48.8,30.07,South,173,2.0,3.0,93,0.00,,---,0.00,VWS V14.01,2013-01-29 12:52:00,
2013-01-29 07:53:00,50.8,48.8,30.07,South,178,0.0,0.0,93,0.00,,---,0.00,VWS V14.01,2013-01-29 12:53:00,
2013-01-29 07:54:00,51.0,49.0,30.07,SSW,209,4.0,4.0,93,0.00,,---,0.00,VWS V14.01,2013-01-29 12:54:00,
2013-01-29 07:55:00,51.0,49.0,30.07,SW,216,0.0,5.0,93,0.00,,---,0.00,VWS V14.01,2013-01-29 12:55:00,
2013-01-29 07:56:00,51.0,49.0,30.07,SW,214,3.0,4.0,93,0.00,,---,0.00,VWS V14.01,2013-01-29 12:56:00,
2013-01-29 07:57:00,51.1,49.2,30.07,SW,214,1.0,4.0,93,0.00,,---,0.00,VWS V14.01,2013-01-29 12:57:00,
2013-01-29 07:58:00,51.3,49.1,30.07,South,178,3.0,5.0,92,0.00,,---,0.00,VWS V14.01,2013-01-29 12:58:00,
2013-01-29 07:59:00,51.4,49.2,30.07,South,178,0.0,4.0,92,0.00,,---,0.00,VWS V14.01,2013-01-29 12:59:00,
2013-01-29 08:00:00,51.4,49.2,30.07,South,178,1.0,2.0,92,0.00,,---,0.00,VWS V14.01,2013-01-29 13:00:00,
2013-01-29 08:01:00,51.4,49.2,30.07,South,178,0.0,2.0,92,0.00,,---,0.00,VWS V14.01,2013-01-29 13:01:00,
2013-01-29 08:02:00,51.4,48.9,30.07,South,190,3.0,3.0,91,0.00,,---,0.00,VWS V14.01,2013-01-29 13:02:00,
2013-01-29 08:03:00,51.6,49.1,30.07,SSW,192,0.0,5.0,91,0.00,,---,0.00,VWS V14.01,2013-01-29 13:03:00,
2013-01-29 08:04:00,51.6,49.1,30.07,South,190,0.0,4.0,91,0.00,,---,0.00,VWS V14.01,2013-01-29 13:04:00,
2013-01-29 08:05:00,51.7,49.2,30.07,SSW,212,4.0,7.0,91,0.00,,---,0.00,VWS V14.01,2013-01-29 13:05:00,
2013-01-29 08:06:00,51.7,49.2,30.07,SSW,212,0.0,4.0,91,0.00,,---,0.00,VWS V14.01,2013-01-29 13:06:00,
2013-01-29 08:07:00,51.7,49.2,30.07,South,174,5.0,5.0,91,0.00,,---,0.00,VWS V14.01,2013-01-29 13:07:00,
2013-01-29 08:08:00,52.0,49.5,30.07,South,188,5.0,5.0,91,0.00,,---,0.00,VWS V14.01,2013-01-29 13:08:00,
2013-01-29 08:09:00,52.2,49.4,30.07,SSW,196,5.0,5.0,90,0.00,,---,0.00,VWS V14.01,2013-01-29 13:09:00,
2013-01-29 08:10:00,52.3,49.5,30.07,SSW,196,0.0,5.0,90,0.00,,---,0.00,VWS V14.01,2013-01-29 13:10:00,
2013-01-29 08:11:00,52.5,49.7,30.07,South,173,4.0,8.0,90,0.00,,---,0.00,VWS V14.01,2013-01-29 13:11:00,
2013-01-29 08:12:00,52.5,49.7,30.07,South,173,0.0,5.0,90,0.00,,---,0.00,VWS V14.01,2013-01-29 13:12:00,
2013-01-29 08:13:00,52.6,49.5,30.07,South,177,2.0,4.0,89,0.00,,---,0.00,VWS V14.01,2013-01-29 13:13:00,
2013-01-29 08:14:00,52.8,49.7,30.07,South,180,1.0,4.0,89,0.00,,---,0.00,VWS V14.01,2013-01-29 13:14:00,
2013-01-29 08:15:00,52.9,49.8,30.07,South,180,2.0,4.0,89,0.00,,---,0.00,VWS V14.01,2013-01-29 13:15:00,
2013-01-29 08:16:00,53.1,50.0,30.07,South,180,0.0,3.0,89,0.00,,---,0.00,VWS V14.01,2013-01-29 13:16:00,
2013-01-29 08:17:00,53.1,50.0,30.07,South,180,0.0,4.0,89,0.00,,---,0.00,VWS V14.01,2013-01-29 13:17:00,
2013-01-29 08:18:00,53.2,49.7,30.07,SSW,195,7.0,7.0,88,0.00,,---,0.00,VWS V14.01,2013-01-29 13:18:00,
2013-01-29 08:19:00,53.3,49.8,30.07,SSW,195,4.0,7.0,88,0.00,,---,0.00,VWS V14.01,2013-01-29 13:19:00,
2013-01-29 08:20:00,53.5,50.0,30.07,SSW,194,1.0,4.0,88,0.00,,---,0.00,VWS V14.01,2013-01-29 13:20:00,
2013-01-29 08:21:00,53.6,49.8,30.07,SSW,194,0.0,1.0,87,0.00,,---,0.00,VWS V14.01,2013-01-29 13:21:00,
2013-01-29 08:22:00,53.6,49.8,30.07,SSW,197,2.0,2.0,87,0.00,,---,0.00,VWS V14.01,2013-01-29 13:22:00,
2013-01-29 08:23:00,53.8,50.0,30.07,South,180,0.0,5.0,87,0.00,,---,0.00,VWS V14.01,2013-01-29 13:23:00,
2013-01-29 08:24:00,53.9,50.1,30.07,South,180,2.0,4.0,87,0.00,,---,0.00,VWS V14.01,2013-01-29 13:24:00,
2013-01-29 08:25:00,54.1,50.0,30.07,SSW,195,2.0,7.0,86,0.00,,---,0.00,VWS V14.01,2013-01-29 13:25:00,
2013-01-29 08:26:00,54.2,50.1,30.07,SSW,195,6.0,9.0,86,0.00,,---,0.00,VWS V14.01,2013-01-29 13:26:00,
2013-01-29 08:27:00,54.2,50.1,30.07,SSW,196,4.0,7.0,86,0.00,,---,0.00,VWS V14.01,2013-01-29 13:27:00,
2013-01-29 08:28:00,54.4,50.0,30.07,SSE,167,5.0,7.0,85,0.00,,---,0.00,VWS V14.01,2013-01-29 13:28:00,
2013-01-29 08:29:00,54.5,50.1,30.07,SSW,194,2.0,9.0,85,0.00,,---,0.00,VWS V14.01,2013-01-29 13:29:00,
2013-01-29 08:30:00,54.7,50.3,30.05,South,180,0.0,3.0,85,0.00,,---,0.00,VWS V14.01,2013-01-29 13:30:00,
2013-01-29 08:31:00,54.8,50.1,30.05,South,181,1.0,1.0,84,0.00,,---,0.00,VWS V14.01,2013-01-29 13:31:00,
2013-01-29 08:32:00,54.8,50.1,30.05,South,182,0.0,4.0,84,0.00,,---,0.00,VWS V14.01,2013-01-29 13:32:00,
2013-01-29 08:33:00,54.8,50.1,30.05,South,182,2.0,4.0,84,0.00,,---,0.00,VWS V14.01,2013-01-29 13:33:00,
2013-01-29 08:34:00,54.8,50.1,30.05,South,182,1.0,2.0,84,0.00,,---,0.00,VWS V14.01,2013-01-29 13:34:00,
2013-01-29 08:35:00,54.8,50.1,30.05,South,178,2.0,5.0,84,0.00,,---,0.00,VWS V14.01,2013-01-29 13:35:00,
2013-01-29 08:36:00,55.0,50.3,30.05,South,178,0.0,4.0,84,0.00,,---,0.00,VWS V14.01,2013-01-29 13:36:00,
2013-01-29 08:37:00,55.0,50.3,30.05,South,178,0.0,0.0,84,0.00,,---,0.00,VWS V14.01,2013-01-29 13:37:00,
2013-01-29 08:38:00,55.0,50.3,30.05,SSW,195,3.0,5.0,84,0.00,,---,0.00,VWS V14.01,2013-01-29 13:38:00,
2013-01-29 08:39:00,55.1,50.0,30.05,South,188,7.0,12.0,83,0.00,,---,0.00,VWS V14.01,2013-01-29 13:39:00,
2013-01-29 08:40:00,55.3,50.2,30.05,SSE,162,5.0,7.0,83,0.00,,---,0.00,VWS V14.01,2013-01-29 13:40:00,
2013-01-29 08:41:00,55.3,50.2,30.05,SSE,161,5.0,8.0,83,0.00,,---,0.00,VWS V14.01,2013-01-29 13:41:00,
2013-01-29 08:42:00,55.4,50.3,30.05,South,182,6.0,7.0,83,0.00,,---,0.00,VWS V14.01,2013-01-29 13:42:00,
2013-01-29 08:43:00,55.6,50.2,30.05,South,182,1.0,4.0,82,0.00,,---,0.00,VWS V14.01,2013-01-29 13:43:00,
2013-01-29 08:44:00,55.6,50.2,30.05,South,187,3.0,8.0,82,0.00,,---,0.00,VWS V14.01,2013-01-29 13:44:00,
2013-01-29 08:45:00,55.7,50.3,30.06,SSW,204,5.0,8.0,82,0.00,,---,0.00,VWS V14.01,2013-01-29 13:45:00,
2013-01-29 08:46:00,55.7,50.0,30.06,SSE,153,9.0,9.0,81,0.00,,---,0.00,VWS V14.01,2013-01-29 13:46:00,
2013-01-29 08:47:00,55.9,50.2,30.06,South,184,6.0,9.0,81,0.00,,---,0.00,VWS V14.01,2013-01-29 13:47:00,
2013-01-29 08:48:00,56.0,50.3,30.06,SSW,203,5.0,6.0,81,0.00,,---,0.00,VWS V14.01,2013-01-29 13:48:00,
2013-01-29 08:49:00,56.0,50.3,30.06,South,169,5.0,8.0,81,0.00,,---,0.00,VWS V14.01,2013-01-29 13:49:00,
2013-01-29 08:50:00,56.0,50.3,30.06,South,175,5.0,8.0,81,0.00,,---,0.00,VWS V14.01,2013-01-29 13:50:00,
2013-01-29 08:51:00,56.2,50.5,30.06,SSE,167,7.0,7.0,81,0.00,,---,0.00,VWS V14.01,2013-01-29 13:51:00,
2013-01-29 08:52:00,56.2,50.5,30.06,South,180,3.0,8.0,81,0.00,,---,0.00,VWS V14.01,2013-01-29 13:52:00,
2013-01-29 08:53:00,56.3,50.2,30.06,SSE,161,7.0,7.0,80,0.00,,---,0.00,VWS V14.01,2013-01-29 13:53:00,
2013-01-29 08:54:00,56.3,50.2,30.06,SSE,165,0.0,7.0,80,0.00,,---,0.00,VWS V14.01,2013-01-29 13:54:00,
2013-01-29 08:55:00,56.5,50.4,30.06,SE,134,2.0,6.0,80,0.00,,---,0.00,VWS V14.01,2013-01-29 13:55:00,
2013-01-29 08:56:00,56.5,50.4,30.06,SE,134,0.0,4.0,80,0.00,,---,0.00,VWS V14.01,2013-01-29 13:56:00,
2013-01-29 08:57:00,56.6,50.5,30.06,SE,133,3.0,5.0,80,0.00,,---,0.00,VWS V14.01,2013-01-29 13:57:00,
2013-01-29 08:58:00,56.6,50.5,30.06,South,177,3.0,4.0,80,0.00,,---,0.00,VWS V14.01,2013-01-29 13:58:00,
2013-01-29 08:59:00,56.6,50.5,30.06,SSE,156,2.0,7.0,80,0.00,,---,0.00,VWS V14.01,2013-01-29 13:59:00,
2013-01-29 09:00:00,56.7,50.6,30.06,SSE,157,0.0,5.0,80,0.00,,---,0.00,VWS V14.01,2013-01-29 14:00:00,
2013-01-29 09:01:00,56.7,50.6,30.06,South,169,2.0,8.0,80,0.00,,---,0.00,VWS V14.01,2013-01-29 14:01:00,
2013-01-29 09:02:00,56.7,50.3,30.06,SSE,168,2.0,2.0,79,0.00,,---,0.00,VWS V14.01,2013-01-29 14:02:00,
2013-01-29 09:03:00,56.9,50.5,30.06,SSE,150,7.0,7.0,79,0.00,,---,0.00,VWS V14.01,2013-01-29 14:03:00,
2013-01-29 09:04:00,56.9,50.5,30.06,South,181,6.0,8.0,79,0.00,,---,0.00,VWS V14.01,2013-01-29 14:04:00,
2013-01-29 09:05:00,57.0,50.6,30.06,South,180,1.0,6.0,79,0.00,,---,0.00,VWS V14.01,2013-01-29 14:05:00,
2013-01-29 09:06:00,57.0,50.6,30.06,SSE,150,1.0,5.0,79,0.00,,---,0.00,VWS V14.01,2013-01-29 14:06:00,
2013-01-29 09:07:00,57.2,50.8,30.06,South,180,5.0,5.0,79,0.00,,---,0.00,VWS V14.01,2013-01-29 14:07:00,
2013-01-29 09:08:00,57.2,50.4,30.06,South,172,2.0,6.0,78,0.00,,---,0.00,VWS V14.01,2013-01-29 14:08:00,
2013-01-29 09:09:00,57.3,50.8,30.06,SE,130,4.0,5.0,79,0.00,,---,0.00,VWS V14.01,2013-01-29 14:09:00,
2013-01-29 09:10:00,57.3,50.5,30.06,SE,130,0.0,4.0,78,0.00,,---,0.00,VWS V14.01,2013-01-29 14:10:00,
2013-01-29 09:11:00,57.3,50.5,30.06,SE,131,1.0,4.0,78,0.00,,---,0.00,VWS V14.01,2013-01-29 14:11:00,
2013-01-29 09:12:00,57.3,50.5,30.06,South,173,6.0,7.0,78,0.00,,---,0.00,VWS V14.01,2013-01-29 14:12:00,
2013-01-29 09:13:00,57.5,50.7,30.06,SE,146,3.0,5.0,78,0.00,,---,0.00,VWS V14.01,2013-01-29 14:13:00,
2013-01-29 09:14:00,57.5,50.7,30.06,South,173,3.0,5.0,78,0.00,,---,0.00,VWS V14.01,2013-01-29 14:14:00,
2013-01-29 09:15:00,57.5,50.7,30.05,South,173,1.0,3.0,78,0.00,,---,0.00,VWS V14.01,2013-01-29 14:15:00,
2013-01-29 09:16:00,57.6,50.8,30.05,SE,130,5.0,7.0,78,0.00,,---,0.00,VWS V14.01,2013-01-29 14:16:00,
2013-01-29 09:17:00,57.6,50.8,30.05,SE,129,0.0,5.0,78,0.00,,---,0.00,VWS V14.01,2013-01-29 14:17:00,
2013-01-29 09:18:00,57.6,50.8,30.05,SE,129,0.0,0.0,78,0.00,,---,0.00,VWS V14.01,2013-01-29 14:18:00,
2013-01-29 09:19:00,57.6,50.8,30.05,SE,129,0.0,0.0,78,0.00,,---,0.00,VWS V14.01,2013-01-29 14:19:00,
2013-01-29 09:20:00,57.8,51.0,30.05,South,182,5.0,5.0,78,0.00,,---,0.00,VWS V14.01,2013-01-29 14:20:00,
2013-01-29 09:21:00,57.8,51.0,30.05,SE,136,6.0,7.0,78,0.00,,---,0.00,VWS V14.01,2013-01-29 14:21:00,
2013-01-29 09:22:00,57.8,51.0,30.05,SE,139,1.0,6.0,78,0.00,,---,0.00,VWS V14.01,2013-01-29 14:22:00,
2013-01-29 09:23:00,58.0,50.8,30.05,SE,139,0.0,0.0,77,0.00,,---,0.00,VWS V14.01,2013-01-29 14:23:00,
2013-01-29 09:24:00,58.0,50.8,30.05,SE,138,0.0,2.0,77,0.00,,---,0.00,VWS V14.01,2013-01-29 14:24:00,
2013-01-29 09:25:00,58.0,50.8,30.05,SE,138,0.0,0.0,77,0.00,,---,0.00,VWS V14.01,2013-01-29 14:25:00,
2013-01-29 09:26:00,58.0,50.8,30.05,SE,138,0.0,0.0,77,0.00,,---,0.00,VWS V14.01,2013-01-29 14:26:00,
2013-01-29 09:27:00,58.0,50.8,30.05,SSE,147,2.0,3.0,77,0.00,,---,0.00,VWS V14.01,2013-01-29 14:27:00,
2013-01-29 09:28:00,58.1,50.9,30.05,SE,146,0.0,4.0,77,0.00,,---,0.00,VWS V14.01,2013-01-29 14:28:00,
2013-01-29 09:29:00,58.1,50.9,30.05,SE,146,2.0,2.0,77,0.00,,---,0.00,VWS V14.01,2013-01-29 14:29:00,
2013-01-29 09:30:00,58.3,51.1,30.06,SE,125,3.0,5.0,77,0.00,,---,0.00,VWS V14.01,2013-01-29 14:30:00,
2013-01-29 09:31:00,58.3,51.1,30.06,ESE,123,4.0,6.0,77,0.00,,---,0.00,VWS V14.01,2013-01-29 14:31:00,
2013-01-29 09:32:00,58.3,51.1,30.06,SSE,158,1.0,5.0,77,0.00,,---,0.00,VWS V14.01,2013-01-29 14:32:00,
2013-01-29 09:33:00,58.4,51.2,30.06,SSE,153,0.0,3.0,77,0.00,,---,0.00,VWS V14.01,2013-01-29 14:33:00,
2013-01-29 09:34:00,58.6,51.1,30.06,SE,138,4.0,5.0,76,0.00,,---,0.00,VWS V14.01,2013-01-29 14:34:00,
2013-01-29 09:35:00,58.6,51.1,30.06,SE,138,1.0,4.0,76,0.00,,---,0.00,VWS V14.01,2013-01-29 14:35:00,
2013-01-29 09:36:00,58.7,51.2,30.06,SE,138,0.0,1.0,76,0.00,,---,0.00,VWS V14.01,2013-01-29 14:36:00,
2013-01-29 09:37:00,58.7,51.2,30.06,SE,138,2.0,3.0,76,0.00,,---,0.00,VWS V14.01,2013-01-29 14:37:00,
2013-01-29 09:38:00,58.9,51.4,30.06,SE,138,0.0,5.0,76,0.00,,---,0.00,VWS V14.01,2013-01-29 14:38:00,
2013-01-29 09:39:00,58.9,51.4,30.06,SE,139,0.0,3.0,76,0.00,,---,0.00,VWS V14.01,2013-01-29 14:39:00,
2013-01-29 09:40:00,59.0,51.5,30.06,SE,139,1.0,3.0,76,0.00,,---,0.00,VWS V14.01,2013-01-29 14:40:00,
2013-01-29 09:41:00,59.0,51.5,30.06,SE,139,0.0,1.0,76,0.00,,---,0.00,VWS V14.01,2013-01-29 14:41:00,
2013-01-29 09:42:00,59.2,51.7,30.06,SE,139,0.0,1.0,76,0.00,,---,0.00,VWS V14.01,2013-01-29 14:42:00,
2013-01-29 09:43:00,59.2,51.3,30.06,ESE,115,5.0,9.0,75,0.00,,---,0.00,VWS V14.01,2013-01-29 14:43:00,
2013-01-29 09:44:00,59.2,51.3,30.06,ESE,115,2.0,5.0,75,0.00,,---,0.00,VWS V14.01,2013-01-29 14:44:00,
2013-01-29 09:45:00,59.2,51.3,30.05,ESE,123,0.0,5.0,75,0.00,,---,0.00,VWS V14.01,2013-01-29 14:45:00,
2013-01-29 09:46:00,59.2,51.3,30.05,SE,126,2.0,4.0,75,0.00,,---,0.00,VWS V14.01,2013-01-29 14:46:00,
2013-01-29 09:47:00,59.2,51.3,30.05,SE,128,2.0,5.0,75,0.00,,---,0.00,VWS V14.01,2013-01-29 14:47:00,
2013-01-29 09:48:00,59.3,51.8,30.05,SE,128,0.0,1.0,76,0.00,,---,0.00,VWS V14.01,2013-01-29 14:48:00,
2013-01-29 09:49:00,59.3,51.4,30.05,SE,128,1.0,5.0,75,0.00,,---,0.00,VWS V14.01,2013-01-29 14:49:00,
2013-01-29 09:50:00,59.5,51.6,30.05,SSE,150,4.0,5.0,75,0.00,,---,0.00,VWS V14.01,2013-01-29 14:50:00,
2013-01-29 09:51:00,59.5,51.6,30.05,SSE,154,1.0,7.0,75,0.00,,---,0.00,VWS V14.01,2013-01-29 14:51:00,
2013-01-29 09:52:00,59.6,51.7,30.05,SSE,153,1.0,2.0,75,0.00,,---,0.00,VWS V14.01,2013-01-29 14:52:00,
2013-01-29 09:53:00,59.6,51.3,30.05,SSE,166,5.0,5.0,74,0.00,,---,0.00,VWS V14.01,2013-01-29 14:53:00,
2013-01-29 09:54:00,59.6,51.3,30.05,South,174,4.0,7.0,74,0.00,,---,0.00,VWS V14.01,2013-01-29 14:54:00,
2013-01-29 09:55:00,59.8,51.5,30.05,SSE,148,4.0,5.0,74,0.00,,---,0.00,VWS V14.01,2013-01-29 14:55:00,
2013-01-29 09:56:00,59.8,51.9,30.05,SE,134,5.0,6.0,75,0.00,,---,0.00,VWS V14.01,2013-01-29 14:56:00,
2013-01-29 09:57:00,59.9,52.0,30.05,SE,131,5.0,6.0,75,0.00,,---,0.00,VWS V14.01,2013-01-29 14:57:00,
2013-01-29 09:58:00,59.9,51.6,30.05,SSE,163,1.0,5.0,74,0.00,,---,0.00,VWS V14.01,2013-01-29 14:58:00,
2013-01-29 09:59:00,60.1,51.8,30.05,South,181,1.0,6.0,74,0.00,,---,0.00,VWS V14.01,2013-01-29 14:59:00,
2013-01-29 10:00:00,60.1,51.8,30.05,SE,141,4.0,5.0,74,0.00,,---,0.00,VWS V14.01,2013-01-29 15:00:00,
2013-01-29 10:01:00,60.2,51.9,30.05,South,175,5.0,6.0,74,0.00,,---,0.00,VWS V14.01,2013-01-29 15:01:00,
2013-01-29 10:02:00,60.2,51.9,30.05,South,182,4.0,6.0,74,0.00,,---,0.00,VWS V14.01,2013-01-29 15:02:00,
2013-01-29 10:03:00,60.2,51.5,30.05,SE,136,4.0,5.0,73,0.00,,---,0.00,VWS V14.01,2013-01-29 15:03:00,
2013-01-29 10:04:00,60.4,51.7,30.05,SE,136,1.0,5.0,73,0.00,,---,0.00,VWS V14.01,2013-01-29 15:04:00,
2013-01-29 10:05:00,60.4,51.7,30.05,SE,137,0.0,2.0,73,0.00,,---,0.00,VWS V14.01,2013-01-29 15:05:00,
2013-01-29 10:06:00,60.5,51.8,30.05,SSE,164,5.0,5.0,73,0.00,,---,0.00,VWS V14.01,2013-01-29 15:06:00,
2013-01-29 10:07:00,60.5,51.8,30.05,South,180,4.0,6.0,73,0.00,,---,0.00,VWS V14.01,2013-01-29 15:07:00,
2013-01-29 10:08:00,60.7,52.0,30.05,ESE,123,4.0,5.0,73,0.00,,---,0.00,VWS V14.01,2013-01-29 15:08:00,
2013-01-29 10:09:00,60.9,52.2,30.05,SE,130,7.0,7.0,73,0.00,,---,0.00,VWS V14.01,2013-01-29 15:09:00,
2013-01-29 10:10:00,61.0,51.9,30.05,SE,134,2.0,7.0,72,0.00,,---,0.00,VWS V14.01,2013-01-29 15:10:00,
2013-01-29 10:11:00,61.2,52.1,30.05,SE,130,4.0,4.0,72,0.00,,---,0.00,VWS V14.01,2013-01-29 15:11:00,
2013-01-29 10:12:00,61.2,52.1,30.05,SE,130,1.0,4.0,72,0.00,,---,0.00,VWS V14.01,2013-01-29 15:12:00,
2013-01-29 10:13:00,61.5,52.4,30.05,SE,136,0.0,1.0,72,0.00,,---,0.00,VWS V14.01,2013-01-29 15:13:00,
2013-01-29 10:14:00,61.8,52.7,30.05,SE,135,1.0,3.0,72,0.00,,---,0.00,VWS V14.01,2013-01-29 15:14:00,
2013-01-29 10:15:00,62.0,52.5,30.05,SE,135,2.0,2.0,71,0.00,,---,0.00,VWS V14.01,2013-01-29 15:15:00,
2013-01-29 10:16:00,62.3,52.4,30.05,SE,142,2.0,5.0,70,0.00,,---,0.00,VWS V14.01,2013-01-29 15:16:00,
2013-01-29 10:17:00,62.4,52.5,30.05,SE,139,1.0,2.0,70,0.00,,---,0.00,VWS V14.01,2013-01-29 15:17:00,
2013-01-29 10:18:00,62.6,52.3,30.05,SE,134,4.0,6.0,69,0.00,,---,0.00,VWS V14.01,2013-01-29 15:18:00,
2013-01-29 10:19:00,62.7,52.4,30.05,SE,135,0.0,4.0,69,0.00,,---,0.00,VWS V14.01,2013-01-29 15:19:00,
2013-01-29 10:20:00,62.9,52.6,30.05,SE,135,0.0,0.0,69,0.00,,---,0.00,VWS V14.01,2013-01-29 15:20:00,
2013-01-29 10:21:00,63.1,52.8,30.05,SE,135,0.0,1.0,69,0.00,,---,0.00,VWS V14.01,2013-01-29 15:21:00,
2013-01-29 10:22:00,63.1,52.8,30.05,SE,135,0.0,0.0,69,0.00,,---,0.00,VWS V14.01,2013-01-29 15:22:00,
2013-01-29 10:23:00,63.2,52.5,30.05,SE,135,2.0,2.0,68,0.00,,---,0.00,VWS V14.01,2013-01-29 15:23:00,
2013-01-29 10:24:00,63.2,52.5,30.05,SE,135,0.0,4.0,68,0.00,,---,0.00,VWS V14.01,2013-01-29 15:24:00,
2013-01-29 10:25:00,63.2,52.5,30.05,South,185,5.0,5.0,68,0.00,,---,0.00,VWS V14.01,2013-01-29 15:25:00,
2013-01-29 10:26:00,63.4,52.7,30.05,SSE,156,0.0,6.0,68,0.00,,---,0.00,VWS V14.01,2013-01-29 15:26:00,
2013-01-29 10:27:00,63.4,52.7,30.05,SSE,154,0.0,5.0,68,0.00,,---,0.00,VWS V14.01,2013-01-29 15:27:00,
2013-01-29 10:28:00,63.7,53.0,30.05,SSE,151,3.0,5.0,68,0.00,,---,0.00,VWS V14.01,2013-01-29 15:28:00,
2013-01-29 10:29:00,63.9,53.2,30.05,SE,141,3.0,6.0,68,0.00,,---,0.00,VWS V14.01,2013-01-29 15:29:00,
2013-01-29 10:30:00,63.9,52.3,30.04,SSE,157,1.0,3.0,66,0.00,,---,0.00,VWS V14.01,2013-01-29 15:30:00,
2013-01-29 10:31:00,63.9,52.3,30.04,SSE,157,0.0,2.0,66,0.00,,---,0.00,VWS V14.01,2013-01-29 15:31:00,
2013-01-29 10:32:00,64.0,52.4,30.04,SSE,157,0.0,0.0,66,0.00,,---,0.00,VWS V14.01,2013-01-29 15:32:00,
2013-01-29 10:33:00,64.2,53.0,30.04,SSE,150,0.0,4.0,67,0.00,,---,0.00,VWS V14.01,2013-01-29 15:33:00,
2013-01-29 10:34:00,64.3,52.7,30.04,SSE,151,1.0,4.0,66,0.00,,---,0.00,VWS V14.01,2013-01-29 15:34:00,
2013-01-29 10:35:00,64.5,52.9,30.04,SSE,149,2.0,4.0,66,0.00,,---,0.00,VWS V14.01,2013-01-29 15:35:00,
2013-01-29 10:36:00,64.7,53.1,30.04,SE,138,3.0,6.0,66,0.00,,---,0.00,VWS V14.01,2013-01-29 15:36:00,
2013-01-29 10:37:00,64.7,53.1,30.04,SE,140,2.0,4.0,66,0.00,,---,0.00,VWS V14.01,2013-01-29 15:37:00,
2013-01-29 10:38:00,65.0,53.0,30.04,SSE,147,4.0,4.0,65,0.00,,---,0.00,VWS V14.01,2013-01-29 15:38:00,
2013-01-29 10:39:00,65.0,53.0,30.04,SE,146,0.0,5.0,65,0.00,,---,0.00,VWS V14.01,2013-01-29 15:39:00,
2013-01-29 10:40:00,65.0,53.0,30.04,SSE,157,5.0,5.0,65,0.00,,---,0.00,VWS V14.01,2013-01-29 15:40:00,
2013-01-29 10:41:00,65.0,53.0,30.04,SSE,150,4.0,6.0,65,0.00,,---,0.00,VWS V14.01,2013-01-29 15:41:00,
2013-01-29 10:42:00,65.0,53.0,30.04,SSE,150,0.0,4.0,65,0.00,,---,0.00,VWS V14.01,2013-01-29 15:42:00,
2013-01-29 10:43:00,64.8,52.8,30.04,ESE,120,5.0,7.0,65,0.00,,---,0.00,VWS V14.01,2013-01-29 15:43:00,
2013-01-29 10:44:00,65.0,53.0,30.04,SE,130,5.0,8.0,65,0.00,,---,0.00,VWS V14.01,2013-01-29 15:44:00,
2013-01-29 10:45:00,64.8,52.8,30.03,SSE,152,4.0,8.0,65,0.00,,---,0.00,VWS V14.01,2013-01-29 15:45:00,
2013-01-29 10:46:00,64.8,52.8,30.03,SSE,160,0.0,4.0,65,0.00,,---,0.00,VWS V14.01,2013-01-29 15:46:00,
2013-01-29 10:47:00,64.8,53.2,30.03,SSE,161,1.0,1.0,66,0.00,,---,0.00,VWS V14.01,2013-01-29 15:47:00,
2013-01-29 10:48:00,64.8,52.8,30.03,ESE,105,0.0,6.0,65,0.00,,---,0.00,VWS V14.01,2013-01-29 15:48:00,
2013-01-29 10:49:00,64.8,52.8,30.03,ESE,117,0.0,4.0,65,0.00,,---,0.00,VWS V14.01,2013-01-29 15:49:00,
2013-01-29 10:50:00,65.0,53.0,30.03,ESE,119,0.0,1.0,65,0.00,,---,0.00,VWS V14.01,2013-01-29 15:50:00,
2013-01-29 10:51:00,65.0,53.0,30.03,NW,313,0.0,6.0,65,0.00,,---,0.00,VWS V14.01,2013-01-29 15:51:00,
2013-01-29 10:52:00,65.0,53.4,30.03,NW,309,0.0,2.0,66,0.00,,---,0.00,VWS V14.01,2013-01-29 15:52:00,
2013-01-29 10:53:00,65.2,53.6,30.03,NW,326,1.0,1.0,66,0.00,,---,0.00,VWS V14.01,2013-01-29 15:53:00,
2013-01-29 10:54:00,65.2,53.2,30.03,SW,229,2.0,5.0,65,0.00,,---,0.00,VWS V14.01,2013-01-29 15:54:00,
2013-01-29 10:55:00,65.2,53.2,30.03,SSE,162,4.0,5.0,65,0.00,,---,0.00,VWS V14.01,2013-01-29 15:55:00,
2013-01-29 10:56:00,65.2,53.2,30.03,SSE,150,4.0,5.0,65,0.00,,---,0.00,VWS V14.01,2013-01-29 15:56:00,
2013-01-29 10:57:00,65.2,53.2,30.03,SSE,150,0.0,4.0,65,0.00,,---,0.00,VWS V14.01,2013-01-29 15:57:00,
2013-01-29 10:58:00,65.3,53.2,30.03,SSE,159,1.0,2.0,65,0.00,,---,0.00,VWS V14.01,2013-01-29 15:58:00,
2013-01-29 10:59:00,65.5,53.4,30.03,South,184,2.0,2.0,65,0.00,,---,0.00,VWS V14.01,2013-01-29 15:59:00,
2013-01-29 11:00:00,65.5,53.4,30.03,SSW,209,0.0,3.0,65,0.00,,---,0.00,VWS V14.01,2013-01-29 16:00:00,
2013-01-29 11:01:00,65.5,53.4,30.03,SE,134,2.0,5.0,65,0.00,,---,0.00,VWS V14.01,2013-01-29 16:01:00,
2013-01-29 11:02:00,65.5,53.4,30.03,SSE,154,2.0,2.0,65,0.00,,---,0.00,VWS V14.01,2013-01-29 16:02:00,
2013-01-29 11:03:00,65.6,53.1,30.03,ESE,112,6.0,8.0,64,0.00,,---,0.00,VWS V14.01,2013-01-29 16:03:00,
2013-01-29 11:04:00,65.8,53.3,30.03,SE,126,1.0,6.0,64,0.00,,---,0.00,VWS V14.01,2013-01-29 16:04:00,
2013-01-29 11:05:00,65.8,53.3,30.03,ESE,119,1.0,6.0,64,0.00,,---,0.00,VWS V14.01,2013-01-29 16:05:00,
2013-01-29 11:06:00,65.8,53.3,30.03,South,189,2.0,4.0,64,0.00,,---,0.00,VWS V14.01,2013-01-29 16:06:00,
2013-01-29 11:07:00,65.8,53.3,30.03,SSE,166,5.0,7.0,64,0.00,,---,0.00,VWS V14.01,2013-01-29 16:07:00,
2013-01-29 11:08:00,66.0,53.5,30.03,SSE,161,5.0,9.0,64,0.00,,---,0.00,VWS V14.01,2013-01-29 16:08:00,
2013-01-29 11:09:00,66.0,53.5,30.03,SE,134,0.0,9.0,64,0.00,,---,0.00,VWS V14.01,2013-01-29 16:09:00,
2013-01-29 11:10:00,66.0,53.5,30.03,SE,145,6.0,6.0,64,0.00,,---,0.00,VWS V14.01,2013-01-29 16:10:00,
2013-01-29 11:11:00,66.1,53.6,30.03,SE,144,5.0,6.0,64,0.00,,---,0.00,VWS V14.01,2013-01-29 16:11:00,
2013-01-29 11:12:00,66.1,53.6,30.03,SSW,201,6.0,7.0,64,0.00,,---,0.00,VWS V14.01,2013-01-29 16:12:00,
2013-01-29 11:13:00,66.1,53.2,30.03,SSE,161,1.0,6.0,63,0.00,,---,0.00,VWS V14.01,2013-01-29 16:13:00,
2013-01-29 11:14:00,66.3,53.8,30.03,SE,141,3.0,7.0,64,0.00,,---,0.00,VWS V14.01,2013-01-29 16:14:00,
2013-01-29 11:15:00,66.4,53.4,30.03,SE,134,3.0,5.0,63,0.00,,---,0.00,VWS V14.01,2013-01-29 16:15:00,
2013-01-29 11:16:00,66.4,53.4,30.03,SSE,148,7.0,7.0,63,0.00,,---,0.00,VWS V14.01,2013-01-29 16:16:00,
2013-01-29 11:17:00,66.4,53.4,30.03,ESE,118,7.0,7.0,63,0.00,,---,0.00,VWS V14.01,2013-01-29 16:17:00,
2013-01-29 11:18:00,66.6,53.6,30.03,SSE,148,3.0,4.0,63,0.00,,---,0.00,VWS V14.01,2013-01-29 16:18:00,
2013-01-29 11:19:00,66.8,53.8,30.03,SE,131,6.0,7.0,63,0.00,,---,0.00,VWS V14.01,2013-01-29 16:19:00,
2013-01-29 11:20:00,66.9,53.5,30.03,SE,143,5.0,6.0,62,0.00,,---,0.00,VWS V14.01,2013-01-29 16:20:00,
2013-01-29 11:21:00,66.9,53.5,30.03,South,169,5.0,7.0,62,0.00,,---,0.00,VWS V14.01,2013-01-29 16:21:00,
2013-01-29 11:22:00,66.9,53.0,30.03,South,178,5.0,8.0,61,0.00,,---,0.00,VWS V14.01,2013-01-29 16:22:00,
2013-01-29 11:23:00,66.9,53.0,30.03,ESE,120,6.0,9.0,61,0.00,,---,0.00,VWS V14.01,2013-01-29 16:23:00,
2013-01-29 11:24:00,66.9,53.0,30.03,SE,130,5.0,9.0,61,0.00,,---,0.00,VWS V14.01,2013-01-29 16:24:00,
2013-01-29 11:25:00,66.9,53.0,30.03,SSE,159,8.0,8.0,61,0.00,,---,0.00,VWS V14.01,2013-01-29 16:25:00,
2013-01-29 11:26:00,66.8,52.9,30.03,SE,142,1.0,8.0,61,0.00,,---,0.00,VWS V14.01,2013-01-29 16:26:00,
2013-01-29 11:27:00,66.8,53.4,30.03,SSE,167,5.0,5.0,62,0.00,,---,0.00,VWS V14.01,2013-01-29 16:27:00,
2013-01-29 11:28:00,66.8,53.4,30.03,SSW,197,7.0,7.0,62,0.00,,---,0.00,VWS V14.01,2013-01-29 16:28:00,
2013-01-29 11:29:00,66.6,53.2,30.03,SSW,213,1.0,7.0,62,0.00,,---,0.00,VWS V14.01,2013-01-29 16:29:00,
2013-01-29 11:30:00,66.6,53.2,30.02,SE,144,2.0,5.0,62,0.00,,---,0.00,VWS V14.01,2013-01-29 16:30:00,
2013-01-29 11:31:00,66.6,53.2,30.02,SE,141,5.0,9.0,62,0.00,,---,0.00,VWS V14.01,2013-01-29 16:31:00,
2013-01-29 11:32:00,66.6,53.2,30.02,South,180,5.0,7.0,62,0.00,,---,0.00,VWS V14.01,2013-01-29 16:32:00,
2013-01-29 11:33:00,66.6,53.2,30.02,South,169,1.0,8.0,62,0.00,,---,0.00,VWS V14.01,2013-01-29 16:33:00,
2013-01-29 11:34:00,66.8,53.4,30.02,West,271,5.0,5.0,62,0.00,,---,0.00,VWS V14.01,2013-01-29 16:34:00,
2013-01-29 11:35:00,66.8,53.4,30.02,SSW,209,5.0,8.0,62,0.00,,---,0.00,VWS V14.01,2013-01-29 16:35:00,
2013-01-29 11:36:00,66.6,53.2,30.02,SSW,193,6.0,8.0,62,0.00,,---,0.00,VWS V14.01,2013-01-29 16:36:00,
2013-01-29 11:37:00,66.6,53.2,30.02,SE,131,6.0,8.0,62,0.00,,---,0.00,VWS V14.01,2013-01-29 16:37:00,
2013-01-29 11:38:00,66.6,53.2,30.02,South,177,1.0,6.0,62,0.00,,---,0.00,VWS V14.01,2013-01-29 16:38:00,
2013-01-29 11:39:00,66.8,53.4,30.02,South,177,1.0,1.0,62,0.00,,---,0.00,VWS V14.01,2013-01-29 16:39:00,
2013-01-29 11:40:00,66.9,53.5,30.02,South,184,4.0,5.0,62,0.00,,---,0.00,VWS V14.01,2013-01-29 16:40:00,
2013-01-29 11:41:00,66.9,53.5,30.02,SSW,194,4.0,4.0,62,0.00,,---,0.00,VWS V14.01,2013-01-29 16:41:00,
2013-01-29 11:42:00,67.1,53.7,30.02,West,259,7.0,7.0,62,0.00,,---,0.00,VWS V14.01,2013-01-29 16:42:00,
2013-01-29 11:43:00,66.9,53.0,30.02,WSW,254,6.0,8.0,61,0.00,,---,0.00,VWS V14.01,2013-01-29 16:43:00,
2013-01-29 11:44:00,66.9,53.5,30.02,SSW,194,6.0,10.0,62,0.00,,---,0.00,VWS V14.01,2013-01-29 16:44:00,
2013-01-29 11:45:00,66.8,52.9,30.01,South,185,2.0,7.0,61,0.00,,---,0.00,VWS V14.01,2013-01-29 16:45:00,
2013-01-29 11:46:00,66.8,53.4,30.01,SSW,198,4.0,5.0,62,0.00,,---,0.00,VWS V14.01,2013-01-29 16:46:00,
2013-01-29 11:47:00,66.8,53.4,30.01,South,169,5.0,7.0,62,0.00,,---,0.00,VWS V14.01,2013-01-29 16:47:00,
2013-01-29 11:48:00,66.9,53.0,30.01,SE,125,5.0,8.0,61,0.00,,---,0.00,VWS V14.01,2013-01-29 16:48:00,
2013-01-29 11:49:00,66.9,53.5,30.01,SSE,151,0.0,7.0,62,0.00,,---,0.00,VWS V14.01,2013-01-29 16:49:00,
2013-01-29 11:50:00,67.1,53.7,30.01,SW,226,0.0,6.0,62,0.00,,---,0.00,VWS V14.01,2013-01-29 16:50:00,
2013-01-29 11:51:00,67.1,53.2,30.01,SSE,159,4.0,8.0,61,0.00,,---,0.00,VWS V14.01,2013-01-29 16:51:00,
2013-01-29 11:52:00,67.1,53.2,30.01,SE,132,7.0,7.0,61,0.00,,---,0.00,VWS V14.01,2013-01-29 16:52:00,
2013-01-29 11:53:00,67.4,53.5,30.01,SSE,156,5.0,6.0,61,0.00,,---,0.00,VWS V14.01,2013-01-29 16:53:00,
2013-01-29 11:54:00,67.6,53.7,30.01,South,182,3.0,6.0,61,0.00,,---,0.00,VWS V14.01,2013-01-29 16:54:00,
2013-01-29 11:55:00,67.6,53.7,30.01,SE,142,4.0,6.0,61,0.00,,---,0.00,VWS V14.01,2013-01-29 16:55:00,
2013-01-29 11:56:00,67.8,53.9,30.01,SE,146,1.0,7.0,61,0.00,,---,0.00,VWS V14.01,2013-01-29 16:56:00,
2013-01-29 11:57:00,67.8,53.9,30.01,South,176,8.0,8.0,61,0.00,,---,0.00,VWS V14.01,2013-01-29 16:57:00,
2013-01-29 11:58:00,67.8,53.4,30.01,SSW,196,7.0,11.0,60,0.00,,---,0.00,VWS V14.01,2013-01-29 16:58:00,
2013-01-29 11:59:00,67.8,53.4,30.01,SSW,211,1.0,7.0,60,0.00,,---,0.00,VWS V14.01,2013-01-29 16:59:00,
2013-01-29 12:00:00,67.8,53.9,30.00,East,91,1.0,5.0,61,0.00,,---,0.00,VWS V14.01,2013-01-29 17:00:00,
2013-01-29 12:01:00,67.9,54.0,30.00,South,177,8.0,11.0,61,0.00,,---,0.00,VWS V14.01,2013-01-29 17:01:00,
2013-01-29 12:02:00,67.9,53.5,30.00,SSW,196,8.0,9.0,60,0.00,,---,0.00,VWS V14.01,2013-01-29 17:02:00,
2013-01-29 12:03:00,67.8,53.4,30.00,East,94,9.0,12.0,60,0.00,,---,0.00,VWS V14.01,2013-01-29 17:03:00,
2013-01-29 12:04:00,67.8,53.9,30.00,SE,135,0.0,9.0,61,0.00,,---,0.00,VWS V14.01,2013-01-29 17:04:00,
2013-01-29 12:05:00,67.9,54.0,30.00,SE,130,5.0,6.0,61,0.00,,---,0.00,VWS V14.01,2013-01-29 17:05:00,
2013-01-29 12:06:00,67.9,53.5,30.00,ESE,109,5.0,9.0,60,0.00,,---,0.00,VWS V14.01,2013-01-29 17:06:00,
2013-01-29 12:07:00,68.1,53.7,30.00,SSE,164,4.0,6.0,60,0.00,,---,0.00,VWS V14.01,2013-01-29 17:07:00,
2013-01-29 12:08:00,68.1,53.7,30.00,ESE,117,5.0,8.0,60,0.00,,---,0.00,VWS V14.01,2013-01-29 17:08:00,
2013-01-29 12:09:00,68.3,53.4,30.00,South,178,5.0,6.0,59,0.00,,---,0.00,VWS V14.01,2013-01-29 17:09:00,
2013-01-29 12:10:00,68.3,53.4,30.00,South,176,5.0,7.0,59,0.00,,---,0.00,VWS V14.01,2013-01-29 17:10:00,
2013-01-29 12:11:00,68.3,53.4,30.00,SSW,199,11.0,12.0,59,0.00,,---,0.00,VWS V14.01,2013-01-29 17:11:00,
2013-01-29 12:12:00,68.3,53.4,30.00,SW,219,2.0,11.0,59,0.00,,---,0.00,VWS V14.01,2013-01-29 17:12:00,
2013-01-29 12:13:00,68.3,53.9,30.00,SE,136,1.0,6.0,60,0.00,,---,0.00,VWS V14.01,2013-01-29 17:13:00,
2013-01-29 12:14:00,68.3,53.9,30.00,SSE,155,6.0,7.0,60,0.00,,---,0.00,VWS V14.01,2013-01-29 17:14:00,
2013-01-29 12:15:00,68.4,53.5,29.99,SE,131,1.0,6.0,59,0.00,,---,0.00,VWS V14.01,2013-01-29 17:15:00,
2013-01-29 12:16:00,68.6,53.7,29.99,SSE,153,5.0,5.0,59,0.00,,---,0.00,VWS V14.01,2013-01-29 17:16:00,
2013-01-29 12:17:00,68.6,53.7,29.99,ESE,121,4.0,7.0,59,0.00,,---,0.00,VWS V14.01,2013-01-29 17:17:00,
2013-01-29 12:18:00,68.8,53.4,29.99,SSW,208,10.0,10.0,58,0.00,,---,0.00,VWS V14.01,2013-01-29 17:18:00,
2013-01-29 12:19:00,68.8,53.4,29.99,South,186,11.0,13.0,58,0.00,,---,0.00,VWS V14.01,2013-01-29 17:19:00,
2013-01-29 12:20:00,68.6,53.2,29.99,South,184,8.0,11.0,58,0.00,,---,0.00,VWS V14.01,2013-01-29 17:20:00,
2013-01-29 12:21:00,68.4,53.1,29.99,SSW,194,8.0,11.0,58,0.00,,---,0.00,VWS V14.01,2013-01-29 17:21:00,
2013-01-29 12:22:00,68.4,53.1,29.99,SSE,165,6.0,8.0,58,0.00,,---,0.00,VWS V14.01,2013-01-29 17:22:00,
2013-01-29 12:23:00,68.6,53.7,29.99,SSE,148,5.0,6.0,59,0.00,,---,0.00,VWS V14.01,2013-01-29 17:23:00,
2013-01-29 12:24:00,68.8,53.9,29.99,SSE,150,4.0,7.0,59,0.00,,---,0.00,VWS V14.01,2013-01-29 17:24:00,
2013-01-29 12:25:00,68.8,53.4,29.99,South,190,5.0,6.0,58,0.00,,---,0.00,VWS V14.01,2013-01-29 17:25:00,
2013-01-29 12:26:00,68.9,53.5,29.99,SSW,213,4.0,6.0,58,0.00,,---,0.00,VWS V14.01,2013-01-29 17:26:00,
2013-01-29 12:27:00,68.9,53.5,29.99,South,188,2.0,4.0,58,0.00,,---,0.00,VWS V14.01,2013-01-29 17:27:00,
2013-01-29 12:28:00,69.1,53.2,29.99,SSE,154,6.0,9.0,57,0.00,,---,0.00,VWS V14.01,2013-01-29 17:28:00,
2013-01-29 12:29:00,69.3,53.4,29.99,South,180,4.0,7.0,57,0.00,,---,0.00,VWS V14.01,2013-01-29 17:29:00,
2013-01-29 12:30:00,69.4,53.5,29.98,ESE,121,8.0,9.0,57,0.00,,---,0.00,VWS V14.01,2013-01-29 17:30:00,
2013-01-29 12:31:00,69.4,53.5,29.98,SSE,157,7.0,9.0,57,0.00,,---,0.00,VWS V14.01,2013-01-29 17:31:00,
2013-01-29 12:32:00,69.6,53.2,29.98,NE,56,6.0,8.0,56,0.00,,---,0.00,VWS V14.01,2013-01-29 17:32:00,
2013-01-29 12:33:00,69.6,53.7,29.98,SE,144,6.0,6.0,57,0.00,,---,0.00,VWS V14.01,2013-01-29 17:33:00,
2013-01-29 12:34:00,69.6,53.2,29.98,SE,134,1.0,8.0,56,0.00,,---,0.00,VWS V14.01,2013-01-29 17:34:00,
2013-01-29 12:35:00,69.6,53.2,29.98,SE,128,6.0,6.0,56,0.00,,---,0.00,VWS V14.01,2013-01-29 17:35:00,
2013-01-29 12:36:00,69.6,53.2,29.98,SE,144,6.0,8.0,56,0.00,,---,0.00,VWS V14.01,2013-01-29 17:36:00,
2013-01-29 12:37:00,69.6,53.2,29.98,SE,136,1.0,6.0,56,0.00,,---,0.00,VWS V14.01,2013-01-29 17:37:00,
2013-01-29 12:38:00,69.8,53.4,29.98,South,184,3.0,7.0,56,0.00,,---,0.00,VWS V14.01,2013-01-29 17:38:00,
2013-01-29 12:39:00,69.8,52.9,29.98,SE,145,5.0,8.0,55,0.00,,---,0.00,VWS V14.01,2013-01-29 17:39:00,
2013-01-29 12:40:00,69.9,53.0,29.98,ESE,118,4.0,7.0,55,0.00,,---,0.00,VWS V14.01,2013-01-29 17:40:00,
2013-01-29 12:41:00,70.1,53.2,29.98,SE,138,7.0,10.0,55,0.00,,---,0.00,VWS V14.01,2013-01-29 17:41:00,
2013-01-29 12:42:00,70.1,53.2,29.98,SE,129,8.0,8.0,55,0.00,,---,0.00,VWS V14.01,2013-01-29 17:42:00,
2013-01-29 12:43:00,70.3,53.4,29.98,South,180,9.0,9.0,55,0.00,,---,0.00,VWS V14.01,2013-01-29 17:43:00,
2013-01-29 12:44:00,70.3,52.9,29.98,ESE,120,4.0,9.0,54,0.00,,---,0.00,VWS V14.01,2013-01-29 17:44:00,
2013-01-29 12:45:00,70.3,52.9,29.97,South,182,7.0,7.0,54,0.00,,---,0.00,VWS V14.01,2013-01-29 17:45:00,
2013-01-29 12:46:00,70.3,52.9,29.97,South,189,4.0,9.0,54,0.00,,---,0.00,VWS V14.01,2013-01-29 17:46:00,
2013-01-29 12:47:00,70.3,52.9,29.97,SSW,203,7.0,7.0,54,0.00,,---,0.00,VWS V14.01,2013-01-29 17:47:00,
2013-01-29 12:48:00,70.1,52.7,29.97,South,171,7.0,14.0,54,0.00,,---,0.00,VWS V14.01,2013-01-29 17:48:00,
2013-01-29 12:49:00,70.1,52.7,29.97,South,186,1.0,8.0,54,0.00,,---,0.00,VWS V14.01,2013-01-29 17:49:00,
2013-01-29 12:50:00,70.1,52.7,29.97,SSW,200,7.0,8.0,54,0.00,,---,0.00,VWS V14.01,2013-01-29 17:50:00,
2013-01-29 12:51:00,70.1,52.7,29.97,South,189,7.0,7.0,54,0.00,,---,0.00,VWS V14.01,2013-01-29 17:51:00,
2013-01-29 12:52:00,70.1,52.7,29.97,SSW,194,7.0,7.0,54,0.00,,---,0.00,VWS V14.01,2013-01-29 17:52:00,
2013-01-29 12:53:00,70.3,52.9,29.97,SSW,200,9.0,9.0,54,0.00,,---,0.00,VWS V14.01,2013-01-29 17:53:00,
2013-01-29 12:54:00,70.3,52.4,29.97,South,176,8.0,11.0,53,0.00,,---,0.00,VWS V14.01,2013-01-29 17:54:00,
2013-01-29 12:55:00,70.3,52.9,29.97,SSE,163,8.0,10.0,54,0.00,,---,0.00,VWS V14.01,2013-01-29 17:55:00,
2013-01-29 12:56:00,70.3,52.4,29.97,SW,221,6.0,10.0,53,0.00,,---,0.00,VWS V14.01,2013-01-29 17:56:00,
2013-01-29 12:57:00,70.3,51.9,29.97,SW,225,6.0,11.0,52,0.00,,---,0.00,VWS V14.01,2013-01-29 17:57:00,
2013-01-29 12:58:00,70.3,52.4,29.97,WSW,253,2.0,6.0,53,0.00,,---,0.00,VWS V14.01,2013-01-29 17:58:00,
2013-01-29 12:59:00,70.3,52.4,29.97,South,171,2.0,7.0,53,0.00,,---,0.00,VWS V14.01,2013-01-29 17:59:00,
2013-01-29 13:00:00,70.4,52.5,29.96,South,178,6.0,8.0,53,0.00,,---,0.00,VWS V14.01,2013-01-29 18:00:00,
2013-01-29 13:01:00,70.4,52.0,29.96,South,186,4.0,7.0,52,0.00,,---,0.00,VWS V14.01,2013-01-29 18:01:00,
2013-01-29 13:02:00,70.6,52.1,29.96,SE,136,5.0,5.0,52,0.00,,---,0.00,VWS V14.01,2013-01-29 18:02:00,
2013-01-29 13:03:00,70.6,52.1,29.96,SSW,206,6.0,9.0,52,0.00,,---,0.00,VWS V14.01,2013-01-29 18:03:00,
2013-01-29 13:04:00,70.6,52.1,29.96,SSE,161,3.0,6.0,52,0.00,,---,0.00,VWS V14.01,2013-01-29 18:04:00,
2013-01-29 13:05:00,70.8,52.8,29.96,ESE,121,4.0,6.0,53,0.00,,---,0.00,VWS V14.01,2013-01-29 18:05:00,
2013-01-29 13:06:00,70.8,52.3,29.96,South,179,3.0,6.0,52,0.00,,---,0.00,VWS V14.01,2013-01-29 18:06:00,
2013-01-29 13:07:00,70.8,52.8,29.96,SE,146,6.0,6.0,53,0.00,,---,0.00,VWS V14.01,2013-01-29 18:07:00,
2013-01-29 13:08:00,70.8,52.8,29.96,South,186,6.0,6.0,53,0.00,,---,0.00,VWS V14.01,2013-01-29 18:08:00,
2013-01-29 13:09:00,70.8,52.8,29.96,SSE,168,5.0,7.0,53,0.00,,---,0.00,VWS V14.01,2013-01-29 18:09:00,
2013-01-29 13:10:00,70.8,53.3,29.96,SSW,209,1.0,5.0,54,0.00,,---,0.00,VWS V14.01,2013-01-29 18:10:00,
2013-01-29 13:11:00,70.8,52.8,29.96,SW,217,2.0,10.0,53,0.00,,---,0.00,VWS V14.01,2013-01-29 18:11:00,
2013-01-29 13:12:00,70.8,52.8,29.96,SE,142,2.0,5.0,53,0.00,,---,0.00,VWS V14.01,2013-01-29 18:12:00,
2013-01-29 13:13:00,70.9,52.9,29.96,SSE,160,5.0,8.0,53,0.00,,---,0.00,VWS V14.01,2013-01-29 18:13:00,
2013-01-29 13:14:00,70.9,52.9,29.96,South,171,5.0,10.0,53,0.00,,---,0.00,VWS V14.01,2013-01-29 18:14:00,
2013-01-29 13:15:00,70.8,52.3,29.96,SSE,160,5.0,10.0,52,0.00,,---,0.00,VWS V14.01,2013-01-29 18:15:00,
2013-01-29 13:16:00,70.8,52.8,29.96,WSW,256,6.0,8.0,53,0.00,,---,0.00,VWS V14.01,2013-01-29 18:16:00,
2013-01-29 13:17:00,70.8,52.8,29.96,SSW,212,5.0,6.0,53,0.00,,---,0.00,VWS V14.01,2013-01-29 18:17:00,
2013-01-29 13:18:00,70.6,52.7,29.96,SSW,192,8.0,9.0,53,0.00,,---,0.00,VWS V14.01,2013-01-29 18:18:00,
2013-01-29 13:19:00,70.4,52.0,29.96,South,169,4.0,9.0,52,0.00,,---,0.00,VWS V14.01,2013-01-29 18:19:00,
2013-01-29 13:20:00,70.4,52.5,29.96,South,187,5.0,6.0,53,0.00,,---,0.00,VWS V14.01,2013-01-29 18:20:00,
2013-01-29 13:21:00,70.6,52.7,29.96,SSW,194,3.0,7.0,53,0.00,,---,0.00,VWS V14.01,2013-01-29 18:21:00,
2013-01-29 13:22:00,70.4,52.5,29.96,SW,236,3.0,4.0,53,0.00,,---,0.00,VWS V14.01,2013-01-29 18:22:00,
2013-01-29 13:23:00,70.4,52.5,29.96,WSW,255,3.0,10.0,53,0.00,,---,0.00,VWS V14.01,2013-01-29 18:23:00,
2013-01-29 13:24:00,70.4,52.5,29.96,WNW,284,9.0,10.0,53,0.00,,---,0.00,VWS V14.01,2013-01-29 18:24:00,
2013-01-29 13:25:00,70.4,52.5,29.96,SSW,208,3.0,9.0,53,0.00,,---,0.00,VWS V14.01,2013-01-29 18:25:00,
2013-01-29 13:26:00,70.4,52.5,29.96,SSW,203,1.0,6.0,53,0.00,,---,0.00,VWS V14.01,2013-01-29 18:26:00,
2013-01-29 13:27:00,70.4,52.5,29.96,SW,228,2.0,7.0,53,0.00,,---,0.00,VWS V14.01,2013-01-29 18:27:00,
2013-01-29 13:28:00,70.6,52.1,29.96,South,178,6.0,10.0,52,0.00,,---,0.00,VWS V14.01,2013-01-29 18:28:00,
2013-01-29 13:29:00,70.6,52.1,29.96,SE,144,3.0,6.0,52,0.00,,---,0.00,VWS V14.01,2013-01-29 18:29:00,
2013-01-29 13:30:00,70.8,52.3,29.95,South,169,4.0,8.0,52,0.00,,---,0.00,VWS V14.01,2013-01-29 18:30:00,
2013-01-29 13:31:00,70.9,52.4,29.95,SSW,208,4.0,7.0,52,0.00,,---,0.00,VWS V14.01,2013-01-29 18:31:00,
2013-01-29 13:32:00,70.9,52.4,29.95,SSW,203,2.0,5.0,52,0.00,,---,0.00,VWS V14.01,2013-01-29 18:32:00,
2013-01-29 13:33:00,71.1,52.6,29.95,SE,134,6.0,10.0,52,0.00,,---,0.00,VWS V14.01,2013-01-29 18:33:00,
2013-01-29 13:34:00,71.3,52.8,29.95,SSW,194,5.0,7.0,52,0.00,,---,0.00,VWS V14.01,2013-01-29 18:34:00,
2013-01-29 13:35:00,71.3,52.3,29.95,SSE,168,4.0,6.0,51,0.00,,---,0.00,VWS V14.01,2013-01-29 18:35:00,
2013-01-29 13:36:00,71.3,52.8,29.95,SSE,161,6.0,6.0,52,0.00,,---,0.00,VWS V14.01,2013-01-29 18:36:00,
2013-01-29 13:37:00,71.3,52.8,29.95,SSE,150,7.0,9.0,52,0.00,,---,0.00,VWS V14.01,2013-01-29 18:37:00,
2013-01-29 13:38:00,71.5,53.0,29.95,ESE,116,6.0,6.0,52,0.00,,---,0.00,VWS V14.01,2013-01-29 18:38:00,
2013-01-29 13:39:00,71.5,53.0,29.95,SE,138,6.0,9.0,52,0.00,,---,0.00,VWS V14.01,2013-01-29 18:39:00,
2013-01-29 13:40:00,71.6,52.5,29.95,SSE,159,4.0,8.0,51,0.00,,---,0.00,VWS V14.01,2013-01-29 18:40:00,
2013-01-29 13:41:00,71.6,52.0,29.95,South,180,4.0,6.0,50,0.00,,---,0.00,VWS V14.01,2013-01-29 18:41:00,
2013-01-29 13:42:00,71.8,52.7,29.95,SE,131,0.0,4.0,51,0.00,,---,0.00,VWS V14.01,2013-01-29 18:42:00,
2013-01-29 13:43:00,71.8,52.7,29.95,South,169,0.0,7.0,51,0.00,,---,0.00,VWS V14.01,2013-01-29 18:43:00,
2013-01-29 13:44:00,72.0,52.4,29.95,SE,140,1.0,7.0,50,0.00,,---,0.00,VWS V14.01,2013-01-29 18:44:00,
2013-01-29 13:45:00,72.0,52.9,29.95,SE,140,1.0,2.0,51,0.00,,---,0.00,VWS V14.01,2013-01-29 18:45:00,
2013-01-29 13:46:00,72.1,53.0,29.95,SSW,200,8.0,8.0,51,0.00,,---,0.00,VWS V14.01,2013-01-29 18:46:00,
2013-01-29 13:47:00,72.1,52.5,29.95,South,184,6.0,8.0,50,0.00,,---,0.00,VWS V14.01,2013-01-29 18:47:00,
2013-01-29 13:48:00,72.1,52.5,29.95,South,190,8.0,8.0,50,0.00,,---,0.00,VWS V14.01,2013-01-29 18:48:00,
2013-01-29 13:49:00,72.3,52.6,29.95,SE,146,4.0,8.0,50,0.00,,---,0.00,VWS V14.01,2013-01-29 18:49:00,
2013-01-29 13:50:00,72.5,53.4,29.95,SE,142,3.0,4.0,51,0.00,,---,0.00,VWS V14.01,2013-01-29 18:50:00,
2013-01-29 13:51:00,72.5,52.8,29.95,SSE,155,5.0,7.0,50,0.00,,---,0.00,VWS V14.01,2013-01-29 18:51:00,
2013-01-29 13:52:00,72.5,52.8,29.95,ESE,121,3.0,6.0,50,0.00,,---,0.00,VWS V14.01,2013-01-29 18:52:00,
2013-01-29 13:53:00,72.7,52.5,29.95,SSE,160,8.0,8.0,49,0.00,,---,0.00,VWS V14.01,2013-01-29 18:53:00,
2013-01-29 13:54:00,72.8,52.5,29.95,SE,136,5.0,8.0,49,0.00,,---,0.00,VWS V14.01,2013-01-29 18:54:00,
2013-01-29 13:55:00,72.8,53.1,29.95,SE,146,4.0,5.0,50,0.00,,---,0.00,VWS V14.01,2013-01-29 18:55:00,
2013-01-29 13:56:00,72.8,52.5,29.95,ESE,116,6.0,10.0,49,0.00,,---,0.00,VWS V14.01,2013-01-29 18:56:00,
2013-01-29 13:57:00,72.8,52.5,29.95,South,189,4.0,6.0,49,0.00,,---,0.00,VWS V14.01,2013-01-29 18:57:00,
2013-01-29 13:58:00,72.8,52.5,29.95,South,181,7.0,10.0,49,0.00,,---,0.00,VWS V14.01,2013-01-29 18:58:00,
2013-01-29 13:59:00,72.8,52.5,29.95,South,171,8.0,8.0,49,0.00,,---,0.00,VWS V14.01,2013-01-29 18:59:00,
2013-01-29 14:00:00,72.7,52.5,29.94,South,177,6.0,8.0,49,0.00,,---,0.00,VWS V14.01,2013-01-29 19:00:00,
2013-01-29 14:01:00,72.7,52.5,29.94,SSE,155,6.0,7.0,49,0.00,,---,0.00,VWS V14.01,2013-01-29 19:01:00,
2013-01-29 14:02:00,72.7,52.5,29.94,SE,129,6.0,7.0,49,0.00,,---,0.00,VWS V14.01,2013-01-29 19:02:00,
2013-01-29 14:03:00,72.7,52.5,29.94,South,173,6.0,8.0,49,0.00,,---,0.00,VWS V14.01,2013-01-29 19:03:00,
2013-01-29 14:04:00,72.7,52.5,29.94,South,186,3.0,10.0,49,0.00,,---,0.00,VWS V14.01,2013-01-29 19:04:00,
2013-01-29 14:05:00,72.7,52.5,29.94,SSE,149,8.0,9.0,49,0.00,,---,0.00,VWS V14.01,2013-01-29 19:05:00,
2013-01-29 14:06:00,72.5,52.3,29.94,SE,136,6.0,9.0,49,0.00,,---,0.00,VWS V14.01,2013-01-29 19:06:00,
2013-01-29 14:07:00,72.5,52.3,29.94,SSE,168,7.0,8.0,49,0.00,,---,0.00,VWS V14.01,2013-01-29 19:07:00,
2013-01-29 14:08:00,72.5,52.3,29.94,SSE,155,5.0,10.0,49,0.00,,---,0.00,VWS V14.01,2013-01-29 19:08:00,
2013-01-29 14:09:00,72.5,52.3,29.94,SE,142,5.0,5.0,49,0.00,,---,0.00,VWS V14.01,2013-01-29 19:09:00,
2013-01-29 14:10:00,72.7,52.5,29.94,SSE,150,0.0,5.0,49,0.00,,---,0.00,VWS V14.01,2013-01-29 19:10:00,
2013-01-29 14:11:00,72.7,52.5,29.94,SSE,150,2.0,4.0,49,0.00,,---,0.00,VWS V14.01,2013-01-29 19:11:00,
2013-01-29 14:12:00,72.8,52.5,29.94,SSE,149,1.0,4.0,49,0.00,,---,0.00,VWS V14.01,2013-01-29 19:12:00,
2013-01-29 14:13:00,73.0,52.7,29.94,SSE,148,6.0,8.0,49,0.00,,---,0.00,VWS V14.01,2013-01-29 19:13:00,
2013-01-29 14:14:00,73.0,52.2,29.94,SSE,167,4.0,7.0,48,0.00,,---,0.00,VWS V14.01,2013-01-29 19:14:00,
2013-01-29 14:15:00,73.0,52.2,29.94,SSE,150,1.0,5.0,48,0.00,,---,0.00,VWS V14.01,2013-01-29 19:15:00,
2013-01-29 14:16:00,73.0,52.2,29.94,SE,129,5.0,8.0,48,0.00,,---,0.00,VWS V14.01,2013-01-29 19:16:00,
2013-01-29 14:17:00,73.2,52.4,29.94,ESE,117,7.0,10.0,48,0.00,,---,0.00,VWS V14.01,2013-01-29 19:17:00,
2013-01-29 14:18:00,73.2,52.4,29.94,SSE,165,3.0,8.0,48,0.00,,---,0.00,VWS V14.01,2013-01-29 19:18:00,
2013-01-29 14:19:00,73.0,52.2,29.94,South,189,7.0,7.0,48,0.00,,---,0.00,VWS V14.01,2013-01-29 19:19:00,
2013-01-29 14:20:00,73.0,52.2,29.94,SSE,151,3.0,8.0,48,0.00,,---,0.00,VWS V14.01,2013-01-29 19:20:00,
2013-01-29 14:21:00,73.0,52.2,29.94,SE,135,3.0,5.0,48,0.00,,---,0.00,VWS V14.01,2013-01-29 19:21:00,
2013-01-29 14:22:00,73.0,52.7,29.94,SE,128,1.0,7.0,49,0.00,,---,0.00,VWS V14.01,2013-01-29 19:22:00,
2013-01-29 14:23:00,73.2,52.4,29.94,SE,128,2.0,5.0,48,0.00,,---,0.00,VWS V14.01,2013-01-29 19:23:00,
2013-01-29 14:24:00,73.3,52.5,29.94,SSE,150,7.0,9.0,48,0.00,,---,0.00,VWS V14.01,2013-01-29 19:24:00,
2013-01-29 14:25:00,73.3,52.5,29.94,SSE,150,3.0,8.0,48,0.00,,---,0.00,VWS V14.01,2013-01-29 19:25:00,
2013-01-29 14:26:00,73.3,52.5,29.94,ESE,115,7.0,7.0,48,0.00,,---,0.00,VWS V14.01,2013-01-29 19:26:00,
2013-01-29 14:27:00,73.3,52.5,29.94,SE,128,5.0,7.0,48,0.00,,---,0.00,VWS V14.01,2013-01-29 19:27:00,
2013-01-29 14:28:00,73.5,52.6,29.94,SSE,159,6.0,6.0,48,0.00,,---,0.00,VWS V14.01,2013-01-29 19:28:00,
2013-01-29 14:29:00,73.5,52.1,29.94,SSE,161,5.0,7.0,47,0.00,,---,0.00,VWS V14.01,2013-01-29 19:29:00,
2013-01-29 14:30:00,73.5,52.1,29.92,South,182,5.0,9.0,47,0.00,,---,0.00,VWS V14.01,2013-01-29 19:30:00,
2013-01-29 14:31:00,73.5,52.1,29.92,SSW,192,4.0,6.0,47,0.00,,---,0.00,VWS V14.01,2013-01-29 19:31:00,
2013-01-29 14:32:00,73.5,52.1,29.92,SE,129,6.0,6.0,47,0.00,,---,0.00,VWS V14.01,2013-01-29 19:32:00,
2013-01-29 14:33:00,73.5,52.1,29.92,South,178,9.0,10.0,47,0.00,,---,0.00,VWS V14.01,2013-01-29 19:33:00,
2013-01-29 14:34:00,73.5,51.5,29.92,South,189,1.0,9.0,46,0.00,,---,0.00,VWS V14.01,2013-01-29 19:34:00,
2013-01-29 14:35:00,73.3,51.9,29.92,SSE,163,5.0,8.0,47,0.00,,---,0.00,VWS V14.01,2013-01-29 19:35:00,
2013-01-29 14:36:00,73.3,51.9,29.92,SE,133,6.0,10.0,47,0.00,,---,0.00,VWS V14.01,2013-01-29 19:36:00,
2013-01-29 14:37:00,73.3,51.9,29.92,SSE,161,4.0,7.0,47,0.00,,---,0.00,VWS V14.01,2013-01-29 19:37:00,
2013-01-29 14:38:00,73.2,51.8,29.92,SSW,194,5.0,6.0,47,0.00,,---,0.00,VWS V14.01,2013-01-29 19:38:00,
2013-01-29 14:39:00,73.2,52.4,29.92,South,184,0.0,6.0,48,0.00,,---,0.00,VWS V14.01,2013-01-29 19:39:00,
2013-01-29 14:40:00,73.2,52.4,29.92,South,180,9.0,10.0,48,0.00,,---,0.00,VWS V14.01,2013-01-29 19:40:00,
2013-01-29 14:41:00,73.2,51.8,29.92,SSE,150,1.0,9.0,47,0.00,,---,0.00,VWS V14.01,2013-01-29 19:41:00,
2013-01-29 14:42:00,73.2,52.4,29.92,South,183,6.0,7.0,48,0.00,,---,0.00,VWS V14.01,2013-01-29 19:42:00,
2013-01-29 14:43:00,73.2,51.8,29.92,SE,125,5.0,8.0,47,0.00,,---,0.00,VWS V14.01,2013-01-29 19:43:00,
2013-01-29 14:44:00,73.2,51.8,29.92,South,170,6.0,10.0,47,0.00,,---,0.00,VWS V14.01,2013-01-29 19:44:00,
2013-01-29 14:45:00,73.2,51.8,29.92,SSW,198,7.0,9.0,47,0.00,,---,0.00,VWS V14.01,2013-01-29 19:45:00,
2013-01-29 14:46:00,73.2,52.4,29.92,South,180,6.0,8.0,48,0.00,,---,0.00,VWS V14.01,2013-01-29 19:46:00,
2013-01-29 14:47:00,73.0,51.6,29.92,South,184,6.0,6.0,47,0.00,,---,0.00,VWS V14.01,2013-01-29 19:47:00,
2013-01-29 14:48:00,73.0,51.6,29.92,South,190,4.0,8.0,47,0.00,,---,0.00,VWS V14.01,2013-01-29 19:48:00,
2013-01-29 14:49:00,73.0,52.2,29.92,SE,135,2.0,9.0,48,0.00,,---,0.00,VWS V14.01,2013-01-29 19:49:00,
2013-01-29 14:50:00,73.0,52.2,29.92,SE,140,4.0,5.0,48,0.00,,---,0.00,VWS V14.01,2013-01-29 19:50:00,
2013-01-29 14:51:00,73.0,52.2,29.92,SSE,156,0.0,5.0,48,0.00,,---,0.00,VWS V14.01,2013-01-29 19:51:00,
2013-01-29 14:52:00,73.0,52.2,29.92,SE,125,5.0,6.0,48,0.00,,---,0.00,VWS V14.01,2013-01-29 19:52:00,
2013-01-29 14:53:00,73.0,52.2,29.92,SSE,164,1.0,7.0,48,0.00,,---,0.00,VWS V14.01,2013-01-29 19:53:00,
2013-01-29 14:54:00,73.0,51.6,29.92,SSE,166,6.0,9.0,47,0.00,,---,0.00,VWS V14.01,2013-01-29 19:54:00,
2013-01-29 14:55:00,73.0,51.6,29.92,South,171,4.0,7.0,47,0.00,,---,0.00,VWS V14.01,2013-01-29 19:55:00,
2013-01-29 14:56:00,73.2,52.4,29.92,SE,135,1.0,10.0,48,0.00,,---,0.00,VWS V14.01,2013-01-29 19:56:00,
2013-01-29 14:57:00,73.2,52.4,29.92,SE,140,5.0,5.0,48,0.00,,---,0.00,VWS V14.01,2013-01-29 19:57:00,
2013-01-29 14:58:00,73.2,52.4,29.92,SSE,157,0.0,5.0,48,0.00,,---,0.00,VWS V14.01,2013-01-29 19:58:00,
2013-01-29 14:59:00,73.3,51.9,29.92,South,183,5.0,8.0,47,0.00,,---,0.00,VWS V14.01,2013-01-29 19:59:00,
2013-01-29 15:00:00,73.2,51.8,29.93,SSE,161,4.0,6.0,47,0.00,,---,0.00,VWS V14.01,2013-01-29 20:00:00,
2013-01-29 15:01:00,73.3,52.5,29.93,SSE,161,2.0,4.0,48,0.00,,---,0.00,VWS V14.01,2013-01-29 20:01:00,
2013-01-29 15:02:00,73.3,51.9,29.93,SE,127,6.0,10.0,47,0.00,,---,0.00,VWS V14.01,2013-01-29 20:02:00,
2013-01-29 15:03:00,73.3,51.9,29.93,SSE,150,5.0,6.0,47,0.00,,---,0.00,VWS V14.01,2013-01-29 20:03:00,
2013-01-29 15:04:00,73.5,52.1,29.93,SE,130,1.0,8.0,47,0.00,,---,0.00,VWS V14.01,2013-01-29 20:04:00,
2013-01-29 15:05:00,73.5,52.6,29.93,SE,134,5.0,5.0,48,0.00,,---,0.00,VWS V14.01,2013-01-29 20:05:00,
2013-01-29 15:06:00,73.7,52.2,29.93,SE,124,1.0,6.0,47,0.00,,---,0.00,VWS V14.01,2013-01-29 20:06:00,
2013-01-29 15:07:00,73.7,52.2,29.93,SE,125,3.0,3.0,47,0.00,,---,0.00,VWS V14.01,2013-01-29 20:07:00,
2013-01-29 15:08:00,73.7,52.2,29.93,ESE,120,4.0,4.0,47,0.00,,---,0.00,VWS V14.01,2013-01-29 20:08:00,
2013-01-29 15:09:00,74.0,52.5,29.93,SE,140,5.0,5.0,47,0.00,,---,0.00,VWS V14.01,2013-01-29 20:09:00,
2013-01-29 15:10:00,74.0,53.1,29.93,ESE,108,4.0,5.0,48,0.00,,---,0.00,VWS V14.01,2013-01-29 20:10:00,
2013-01-29 15:11:00,74.2,52.7,29.93,South,172,4.0,8.0,47,0.00,,---,0.00,VWS V14.01,2013-01-29 20:11:00,
2013-01-29 15:12:00,74.2,52.1,29.93,SSE,165,5.0,7.0,46,0.00,,---,0.00,VWS V14.01,2013-01-29 20:12:00,
2013-01-29 15:13:00,74.2,52.1,29.93,SSE,161,4.0,5.0,46,0.00,,---,0.00,VWS V14.01,2013-01-29 20:13:00,
2013-01-29 15:14:00,74.2,52.1,29.93,SE,124,4.0,8.0,46,0.00,,---,0.00,VWS V14.01,2013-01-29 20:14:00,
2013-01-29 15:15:00,74.0,51.9,29.92,SE,136,5.0,7.0,46,0.00,,---,0.00,VWS V14.01,2013-01-29 20:15:00,
2013-01-29 15:16:00,74.0,52.5,29.92,SE,128,0.0,5.0,47,0.00,,---,0.00,VWS V14.01,2013-01-29 20:16:00,
2013-01-29 15:17:00,74.0,52.5,29.92,SE,128,0.0,5.0,47,0.00,,---,0.00,VWS V14.01,2013-01-29 20:17:00,
2013-01-29 15:18:00,74.0,52.5,29.92,SE,128,0.0,1.0,47,0.00,,---,0.00,VWS V14.01,2013-01-29 20:18:00,
2013-01-29 15:19:00,73.9,52.4,29.92,South,177,5.0,6.0,47,0.00,,---,0.00,VWS V14.01,2013-01-29 20:19:00,
2013-01-29 15:20:00,73.9,51.8,29.92,South,190,2.0,7.0,46,0.00,,---,0.00,VWS V14.01,2013-01-29 20:20:00,
2013-01-29 15:21:00,73.9,52.4,29.92,South,190,0.0,2.0,47,0.00,,---,0.00,VWS V14.01,2013-01-29 20:21:00,
2013-01-29 15:22:00,73.9,53.0,29.92,East,95,0.0,5.0,48,0.00,,---,0.00,VWS V14.01,2013-01-29 20:22:00,
2013-01-29 15:23:00,73.9,53.0,29.92,ESE,116,1.0,1.0,48,0.00,,---,0.00,VWS V14.01,2013-01-29 20:23:00,
2013-01-29 15:24:00,73.9,52.4,29.92,ESE,121,4.0,8.0,47,0.00,,---,0.00,VWS V14.01,2013-01-29 20:24:00,
2013-01-29 15:25:00,73.9,53.0,29.92,East,92,4.0,8.0,48,0.00,,---,0.00,VWS V14.01,2013-01-29 20:25:00,
2013-01-29 15:26:00,74.0,53.1,29.92,ESE,117,0.0,5.0,48,0.00,,---,0.00,VWS V14.01,2013-01-29 20:26:00,
2013-01-29 15:27:00,74.0,52.5,29.92,ESE,123,0.0,4.0,47,0.00,,---,0.00,VWS V14.01,2013-01-29 20:27:00,
2013-01-29 15:28:00,74.0,52.5,29.92,SE,132,1.0,1.0,47,0.00,,---,0.00,VWS V14.01,2013-01-29 20:28:00,
2013-01-29 15:29:00,74.0,52.5,29.92,SSE,165,1.0,6.0,47,0.00,,---,0.00,VWS V14.01,2013-01-29 20:29:00,
2013-01-29 15:30:00,74.0,52.5,29.92,SE,129,7.0,7.0,47,0.00,,---,0.00,VWS V14.01,2013-01-29 20:30:00,
2013-01-29 15:31:00,74.0,52.5,29.92,SE,144,2.0,8.0,47,0.00,,---,0.00,VWS V14.01,2013-01-29 20:31:00,
2013-01-29 15:32:00,73.9,52.4,29.92,SE,128,4.0,6.0,47,0.00,,---,0.00,VWS V14.01,2013-01-29 20:32:00,
2013-01-29 15:33:00,73.9,52.4,29.92,SE,134,3.0,4.0,47,0.00,,---,0.00,VWS V14.01,2013-01-29 20:33:00,
2013-01-29 15:34:00,74.0,52.5,29.92,SSE,155,1.0,5.0,47,0.00,,---,0.00,VWS V14.01,2013-01-29 20:34:00,
2013-01-29 15:35:00,74.0,52.5,29.92,South,180,2.0,7.0,47,0.00,,---,0.00,VWS V14.01,2013-01-29 20:35:00,
2013-01-29 15:36:00,74.0,52.5,29.92,SE,131,6.0,7.0,47,0.00,,---,0.00,VWS V14.01,2013-01-29 20:36:00,
2013-01-29 15:37:00,74.0,52.5,29.92,SE,132,1.0,6.0,47,0.00,,---,0.00,VWS V14.01,2013-01-29 20:37:00,
2013-01-29 15:38:00,74.0,52.5,29.92,SE,131,2.0,2.0,47,0.00,,---,0.00,VWS V14.01,2013-01-29 20:38:00,
2013-01-29 15:39:00,74.2,52.1,29.92,SSE,161,4.0,5.0,46,0.00,,---,0.00,VWS V14.01,2013-01-29 20:39:00,
2013-01-29 15:40:00,74.2,52.1,29.92,SE,138,3.0,7.0,46,0.00,,---,0.00,VWS V14.01,2013-01-29 20:40:00,
2013-01-29 15:41:00,74.2,52.7,29.92,SE,132,5.0,7.0,47,0.00,,---,0.00,VWS V14.01,2013-01-29 20:41:00,
2013-01-29 15:42:00,74.0,51.9,29.92,SE,142,5.0,9.0,46,0.00,,---,0.00,VWS V14.01,2013-01-29 20:42:00,
2013-01-29 15:43:00,74.0,51.9,29.92,SE,140,3.0,5.0,46,0.00,,---,0.00,VWS V14.01,2013-01-29 20:43:00,
2013-01-29 15:44:00,74.0,52.5,29.92,SE,136,4.0,5.0,47,0.00,,---,0.00,VWS V14.01,2013-01-29 20:44:00,
2013-01-29 15:45:00,73.9,52.4,29.92,SSE,153,5.0,6.0,47,0.00,,---,0.00,VWS V14.01,2013-01-29 20:45:00,
2013-01-29 15:46:00,73.9,52.4,29.92,SE,144,2.0,6.0,47,0.00,,---,0.00,VWS V14.01,2013-01-29 20:46:00,
2013-01-29 15:47:00,73.9,52.4,29.92,SE,134,1.0,2.0,47,0.00,,---,0.00,VWS V14.01,2013-01-29 20:47:00,
2013-01-29 15:48:00,73.9,52.4,29.92,SE,134,1.0,1.0,47,0.00,,---,0.00,VWS V14.01,2013-01-29 20:48:00,
2013-01-29 15:49:00,73.9,51.8,29.92,SSE,167,6.0,6.0,46,0.00,,---,0.00,VWS V14.01,2013-01-29 20:49:00,
2013-01-29 15:50:00,73.9,51.8,29.92,South,188,1.0,6.0,46,0.00,,---,0.00,VWS V14.01,2013-01-29 20:50:00,
2013-01-29 15:51:00,73.9,51.8,29.92,SSE,157,1.0,4.0,46,0.00,,---,0.00,VWS V14.01,2013-01-29 20:51:00,
2013-01-29 15:52:00,74.0,52.5,29.92,SE,144,3.0,5.0,47,0.00,,---,0.00,VWS V14.01,2013-01-29 20:52:00,
2013-01-29 15:53:00,73.9,52.4,29.92,SE,144,1.0,4.0,47,0.00,,---,0.00,VWS V14.01,2013-01-29 20:53:00,
2013-01-29 15:54:00,73.9,52.4,29.92,SSE,160,0.0,3.0,47,0.00,,---,0.00,VWS V14.01,2013-01-29 20:54:00,
2013-01-29 15:55:00,73.9,52.4,29.92,ESE,115,2.0,5.0,47,0.00,,---,0.00,VWS V14.01,2013-01-29 20:55:00,
2013-01-29 15:56:00,73.9,52.4,29.92,SE,127,5.0,6.0,47,0.00,,---,0.00,VWS V14.01,2013-01-29 20:56:00,
2013-01-29 15:57:00,73.7,52.2,29.92,ESE,103,3.0,5.0,47,0.00,,---,0.00,VWS V14.01,2013-01-29 20:57:00,
2013-01-29 15:58:00,73.7,52.2,29.92,SSE,163,5.0,6.0,47,0.00,,---,0.00,VWS V14.01,2013-01-29 20:58:00,
2013-01-29 15:59:00,73.7,52.2,29.92,SE,144,2.0,4.0,47,0.00,,---,0.00,VWS V14.01,2013-01-29 20:59:00,
2013-01-29 16:00:00,73.7,52.2,29.92,SE,136,4.0,7.0,47,0.00,,---,0.00,VWS V14.01,2013-01-29 21:00:00,
2013-01-29 16:01:00,73.5,52.1,29.92,SSE,151,3.0,5.0,47,0.00,,---,0.00,VWS V14.01,2013-01-29 21:01:00,
2013-01-29 16:02:00,73.5,52.6,29.92,SE,138,4.0,5.0,48,0.00,,---,0.00,VWS V14.01,2013-01-29 21:02:00,
2013-01-29 16:03:00,73.5,52.6,29.92,SE,137,2.0,4.0,48,0.00,,---,0.00,VWS V14.01,2013-01-29 21:03:00,
2013-01-29 16:04:00,73.3,52.5,29.92,South,177,1.0,4.0,48,0.00,,---,0.00,VWS V14.01,2013-01-29 21:04:00,
2013-01-29 16:05:00,73.2,52.4,29.92,SSE,161,4.0,5.0,48,0.00,,---,0.00,VWS V14.01,2013-01-29 21:05:00,
2013-01-29 16:06:00,73.2,52.4,29.92,SE,128,2.0,8.0,48,0.00,,---,0.00,VWS V14.01,2013-01-29 21:06:00,
2013-01-29 16:07:00,73.0,52.2,29.92,SSE,150,2.0,6.0,48,0.00,,---,0.00,VWS V14.01,2013-01-29 21:07:00,
2013-01-29 16:08:00,73.0,52.2,29.92,SSE,150,1.0,2.0,48,0.00,,---,0.00,VWS V14.01,2013-01-29 21:08:00,
2013-01-29 16:09:00,72.8,52.0,29.92,ESE,119,1.0,6.0,48,0.00,,---,0.00,VWS V14.01,2013-01-29 21:09:00,
2013-01-29 16:10:00,72.7,51.9,29.92,SE,128,1.0,5.0,48,0.00,,---,0.00,VWS V14.01,2013-01-29 21:10:00,
2013-01-29 16:11:00,72.7,52.5,29.92,SE,130,4.0,5.0,49,0.00,,---,0.00,VWS V14.01,2013-01-29 21:11:00,
2013-01-29 16:12:00,72.7,52.5,29.92,SE,127,1.0,4.0,49,0.00,,---,0.00,VWS V14.01,2013-01-29 21:12:00,
2013-01-29 16:13:00,72.7,52.5,29.92,SE,127,1.0,2.0,49,0.00,,---,0.00,VWS V14.01,2013-01-29 21:13:00,
2013-01-29 16:14:00,72.5,52.3,29.92,ESE,123,0.0,4.0,49,0.00,,---,0.00,VWS V14.01,2013-01-29 21:14:00,
2013-01-29 16:15:00,72.5,52.3,29.93,ESE,123,1.0,5.0,49,0.00,,---,0.00,VWS V14.01,2013-01-29 21:15:00,
2013-01-29 16:16:00,72.5,52.3,29.93,SE,146,4.0,5.0,49,0.00,,---,0.00,VWS V14.01,2013-01-29 21:16:00,
2013-01-29 16:17:00,72.5,52.3,29.93,SSE,150,4.0,6.0,49,0.00,,---,0.00,VWS V14.01,2013-01-29 21:17:00,
2013-01-29 16:18:00,72.5,52.3,29.93,SSE,152,4.0,5.0,49,0.00,,---,0.00,VWS V14.01,2013-01-29 21:18:00,
2013-01-29 16:19:00,72.3,52.1,29.93,ESE,109,5.0,6.0,49,0.00,,---,0.00,VWS V14.01,2013-01-29 21:19:00,
2013-01-29 16:20:00,72.3,52.1,29.93,South,172,2.0,8.0,49,0.00,,---,0.00,VWS V14.01,2013-01-29 21:20:00,
2013-01-29 16:21:00,72.1,51.9,29.93,ESE,123,2.0,8.0,49,0.00,,---,0.00,VWS V14.01,2013-01-29 21:21:00,
2013-01-29 16:22:00,72.1,51.9,29.93,SE,146,4.0,6.0,49,0.00,,---,0.00,VWS V14.01,2013-01-29 21:22:00,
2013-01-29 16:23:00,72.1,51.9,29.93,SE,145,4.0,4.0,49,0.00,,---,0.00,VWS V14.01,2013-01-29 21:23:00,
2013-01-29 16:24:00,72.0,51.8,29.93,SE,135,4.0,8.0,49,0.00,,---,0.00,VWS V14.01,2013-01-29 21:24:00,
2013-01-29 16:25:00,71.8,51.6,29.93,South,183,1.0,5.0,49,0.00,,---,0.00,VWS V14.01,2013-01-29 21:25:00,
2013-01-29 16:26:00,71.8,51.6,29.93,SSW,196,7.0,9.0,49,0.00,,---,0.00,VWS V14.01,2013-01-29 21:26:00,
2013-01-29 16:27:00,71.8,51.6,29.93,SE,137,4.0,7.0,49,0.00,,---,0.00,VWS V14.01,2013-01-29 21:27:00,
2013-01-29 16:28:00,71.8,51.6,29.93,SE,136,1.0,4.0,49,0.00,,---,0.00,VWS V14.01,2013-01-29 21:28:00,
2013-01-29 16:29:00,71.6,52.0,29.93,SE,142,3.0,4.0,50,0.00,,---,0.00,VWS V14.01,2013-01-29 21:29:00,
2013-01-29 16:30:00,71.5,51.9,29.93,SE,134,0.0,6.0,50,0.00,,---,0.00,VWS V14.01,2013-01-29 21:30:00,
2013-01-29 16:31:00,71.5,51.9,29.93,ESE,123,2.0,5.0,50,0.00,,---,0.00,VWS V14.01,2013-01-29 21:31:00,
2013-01-29 16:32:00,71.5,51.9,29.93,SSE,160,1.0,7.0,50,0.00,,---,0.00,VWS V14.01,2013-01-29 21:32:00,
2013-01-29 16:33:00,71.5,51.9,29.93,SSE,161,4.0,4.0,50,0.00,,---,0.00,VWS V14.01,2013-01-29 21:33:00,
2013-01-29 16:34:00,71.3,51.7,29.93,SE,127,1.0,5.0,50,0.00,,---,0.00,VWS V14.01,2013-01-29 21:34:00,
2013-01-29 16:35:00,71.3,51.7,29.93,SE,130,1.0,5.0,50,0.00,,---,0.00,VWS V14.01,2013-01-29 21:35:00,
2013-01-29 16:36:00,71.3,51.7,29.93,East,92,4.0,5.0,50,0.00,,---,0.00,VWS V14.01,2013-01-29 21:36:00,
2013-01-29 16:37:00,71.1,51.5,29.93,SE,128,1.0,4.0,50,0.00,,---,0.00,VWS V14.01,2013-01-29 21:37:00,
2013-01-29 16:38:00,71.1,51.5,29.93,SE,128,1.0,1.0,50,0.00,,---,0.00,VWS V14.01,2013-01-29 21:38:00,
2013-01-29 16:39:00,71.1,51.5,29.93,SE,131,0.0,4.0,50,0.00,,---,0.00,VWS V14.01,2013-01-29 21:39:00,
2013-01-29 16:40:00,71.1,51.5,29.93,ESE,111,4.0,7.0,50,0.00,,---,0.00,VWS V14.01,2013-01-29 21:40:00,
2013-01-29 16:41:00,71.1,51.5,29.93,South,173,2.0,7.0,50,0.00,,---,0.00,VWS V14.01,2013-01-29 21:41:00,
2013-01-29 16:42:00,71.1,51.5,29.93,SSE,160,0.0,6.0,50,0.00,,---,0.00,VWS V14.01,2013-01-29 21:42:00,
2013-01-29 16:43:00,71.1,51.5,29.93,SSE,159,1.0,1.0,50,0.00,,---,0.00,VWS V14.01,2013-01-29 21:43:00,
2013-01-29 16:44:00,71.1,51.5,29.93,SSW,196,3.0,8.0,50,0.00,,---,0.00,VWS V14.01,2013-01-29 21:44:00,
2013-01-29 16:45:00,71.1,51.5,29.93,SE,129,2.0,6.0,50,0.00,,---,0.00,VWS V14.01,2013-01-29 21:45:00,
2013-01-29 16:46:00,71.3,51.7,29.93,SSE,154,0.0,5.0,50,0.00,,---,0.00,VWS V14.01,2013-01-29 21:46:00,
2013-01-29 16:47:00,71.3,51.7,29.93,SSE,155,0.0,3.0,50,0.00,,---,0.00,VWS V14.01,2013-01-29 21:47:00,
2013-01-29 16:48:00,71.3,51.7,29.93,SSE,155,0.0,0.0,50,0.00,,---,0.00,VWS V14.01,2013-01-29 21:48:00,
2013-01-29 16:49:00,71.1,51.5,29.93,SSE,163,2.0,7.0,50,0.00,,---,0.00,VWS V14.01,2013-01-29 21:49:00,
2013-01-29 16:50:00,71.1,51.5,29.93,SSE,159,7.0,7.0,50,0.00,,---,0.00,VWS V14.01,2013-01-29 21:50:00,
2013-01-29 16:51:00,71.1,51.5,29.93,SSE,166,0.0,9.0,50,0.00,,---,0.00,VWS V14.01,2013-01-29 21:51:00,
2013-01-29 16:52:00,71.1,51.5,29.93,SSE,165,0.0,2.0,50,0.00,,---,0.00,VWS V14.01,2013-01-29 21:52:00,
2013-01-29 16:53:00,71.1,51.5,29.93,SSE,165,1.0,1.0,50,0.00,,---,0.00,VWS V14.01,2013-01-29 21:53:00,
2013-01-29 16:55:00,70.9,51.9,29.93,SSE,151,1.0,1.0,51,0.00,,---,0.00,VWS V14.01,2013-01-29 21:55:00,
2013-01-29 16:56:00,70.9,51.9,29.93,SSE,150,0.0,1.0,51,0.00,,---,0.00,VWS V14.01,2013-01-29 21:56:00,
2013-01-29 16:57:00,70.9,51.9,29.93,SSE,150,0.0,1.0,51,0.00,,---,0.00,VWS V14.01,2013-01-29 21:57:00,
2013-01-29 16:58:00,70.8,51.8,29.93,SSE,150,0.0,0.0,51,0.00,,---,0.00,VWS V14.01,2013-01-29 21:58:00,
2013-01-29 16:59:00,70.6,52.1,29.93,SSE,155,1.0,1.0,52,0.00,,---,0.00,VWS V14.01,2013-01-29 21:59:00,
2013-01-29 17:00:00,70.4,52.0,29.93,SSE,155,0.0,4.0,52,0.00,,---,0.00,VWS V14.01,2013-01-29 22:00:00,
2013-01-29 17:01:00,70.3,52.4,29.93,SSE,155,0.0,1.0,53,0.00,,---,0.00,VWS V14.01,2013-01-29 22:01:00,
2013-01-29 17:03:00,70.1,52.7,29.93,SSE,155,1.0,2.0,54,0.00,,---,0.00,VWS V14.01,2013-01-29 22:03:00,
2013-01-29 17:11:00,69.1,52.3,29.93,SSE,158,0.0,1.0,55,0.00,,---,0.00,VWS V14.01,2013-01-29 22:11:00,
2013-01-29 17:16:00,68.1,51.8,29.93,SE,142,1.0,2.0,56,0.00,,---,0.00,VWS V14.01,2013-01-29 22:16:00,
2013-01-29 17:21:00,67.8,51.5,29.93,ESE,123,0.0,5.0,56,0.00,,---,0.00,VWS V14.01,2013-01-29 22:21:00,
2013-01-29 17:26:00,67.6,51.4,29.93,SE,130,2.0,2.0,56,0.00,,---,0.00,VWS V14.01,2013-01-29 22:26:00,
2013-01-29 17:31:00,67.4,51.2,29.94,SE,134,1.0,4.0,56,0.00,,---,0.00,VWS V14.01,2013-01-29 22:31:00,
2013-01-29 17:36:00,67.3,51.1,29.94,SE,134,0.0,2.0,56,0.00,,---,0.00,VWS V14.01,2013-01-29 22:36:00,
2013-01-29 17:41:00,66.9,51.2,29.94,SE,133,0.0,5.0,57,0.00,,---,0.00,VWS V14.01,2013-01-29 22:41:00,
2013-01-29 17:46:00,66.6,50.9,29.93,SE,132,2.0,3.0,57,0.00,,---,0.00,VWS V14.01,2013-01-29 22:46:00,
2013-01-29 17:51:00,66.3,51.1,29.93,SE,132,0.0,1.0,58,0.00,,---,0.00,VWS V14.01,2013-01-29 22:51:00,
2013-01-29 17:56:00,65.8,50.6,29.93,SE,132,0.0,0.0,58,0.00,,---,0.00,VWS V14.01,2013-01-29 22:56:00,
2013-01-29 18:01:00,65.3,50.6,29.93,SE,132,0.0,0.0,59,0.00,,---,0.00,VWS V14.01,2013-01-29 23:01:00,
2013-01-29 18:06:00,64.7,51.0,29.93,SE,132,0.0,0.0,61,0.00,,---,0.00,VWS V14.01,2013-01-29 23:06:00,
2013-01-29 18:11:00,64.0,50.3,29.93,SE,132,0.0,0.0,61,0.00,,---,0.00,VWS V14.01,2013-01-29 23:11:00,
2013-01-29 18:16:00,63.4,50.6,29.94,SE,132,0.0,0.0,63,0.00,,---,0.00,VWS V14.01,2013-01-29 23:16:00,
2013-01-29 18:21:00,62.9,50.1,29.94,SE,132,0.0,0.0,63,0.00,,---,0.00,VWS V14.01,2013-01-29 23:21:00,
2013-01-29 18:26:00,62.3,50.0,29.94,SE,132,0.0,0.0,64,0.00,,---,0.00,VWS V14.01,2013-01-29 23:26:00,
2013-01-29 18:31:00,61.5,50.0,29.94,SE,132,0.0,0.0,66,0.00,,---,0.00,VWS V14.01,2013-01-29 23:31:00,
2013-01-29 18:36:00,60.7,49.7,29.94,SE,132,0.0,0.0,67,0.00,,---,0.00,VWS V14.01,2013-01-29 23:36:00,
2013-01-29 18:41:00,59.9,49.3,29.94,SE,132,0.0,0.0,68,0.00,,---,0.00,VWS V14.01,2013-01-29 23:41:00,
2013-01-29 18:46:00,59.2,49.0,29.94,SE,132,0.0,0.0,69,0.00,,---,0.00,VWS V14.01,2013-01-29 23:46:00,
2013-01-29 18:51:00,58.6,49.2,29.94,SE,132,0.0,0.0,71,0.00,,---,0.00,VWS V14.01,2013-01-29 23:51:00,
2013-01-29 18:56:00,58.3,49.0,29.94,SE,132,0.0,0.0,71,0.00,,---,0.00,VWS V14.01,2013-01-29 23:56:00,
2013-01-29 19:01:00,58.0,49.0,29.94,SE,132,0.0,0.0,72,0.00,,---,0.00,VWS V14.01,2013-01-30 00:01:00,
2013-01-29 19:06:00,57.5,48.6,29.94,SE,132,0.0,0.0,72,0.00,,---,0.00,VWS V14.01,2013-01-30 00:06:00,
2013-01-29 19:11:00,57.0,48.1,29.94,SE,132,0.0,0.0,72,0.00,,---,0.00,VWS V14.01,2013-01-30 00:11:00,
2013-01-29 19:16:00,56.6,48.1,29.93,SE,132,0.0,0.0,73,0.00,,---,0.00,VWS V14.01,2013-01-30 00:16:00,
2013-01-29 19:21:00,56.0,47.8,29.93,SE,132,0.0,0.0,74,0.00,,---,0.00,VWS V14.01,2013-01-30 00:21:00,
2013-01-29 19:26:00,55.6,47.8,29.93,SE,132,0.0,0.0,75,0.00,,---,0.00,VWS V14.01,2013-01-30 00:26:00,
2013-01-29 19:31:00,55.0,47.9,29.93,SE,132,0.0,0.0,77,0.00,,---,0.00,VWS V14.01,2013-01-30 00:31:00,
2013-01-29 19:36:00,54.7,48.0,29.93,SE,132,0.0,0.0,78,0.00,,---,0.00,VWS V14.01,2013-01-30 00:36:00,
2013-01-29 19:41:00,54.4,47.7,29.93,SE,132,0.0,1.0,78,0.00,,---,0.00,VWS V14.01,2013-01-30 00:41:00,
2013-01-29 19:46:00,54.2,47.8,29.94,SE,132,0.0,0.0,79,0.00,,---,0.00,VWS V14.01,2013-01-30 00:46:00,
2013-01-29 19:51:00,54.4,47.7,29.94,SE,132,0.0,0.0,78,0.00,,---,0.00,VWS V14.01,2013-01-30 00:51:00,
2013-01-29 19:56:00,54.1,47.4,29.94,SE,132,0.0,0.0,78,0.00,,---,0.00,VWS V14.01,2013-01-30 00:56:00,
2013-01-29 20:01:00,53.8,47.1,29.94,SE,132,0.0,0.0,78,0.00,,---,0.00,VWS V14.01,2013-01-30 01:01:00,
2013-01-29 20:06:00,53.3,47.0,29.94,SE,132,0.0,0.0,79,0.00,,---,0.00,VWS V14.01,2013-01-30 01:06:00,
2013-01-29 20:11:00,53.1,46.8,29.94,SE,132,0.0,0.0,79,0.00,,---,0.00,VWS V14.01,2013-01-30 01:11:00,
2013-01-29 20:16:00,52.6,46.6,29.94,SE,132,0.0,0.0,80,0.00,,---,0.00,VWS V14.01,2013-01-30 01:16:00,
2013-01-29 20:21:00,52.3,46.7,29.94,SE,132,0.0,0.0,81,0.00,,---,0.00,VWS V14.01,2013-01-30 01:21:00,
2013-01-29 20:26:00,51.9,46.3,29.94,SE,132,0.0,0.0,81,0.00,,---,0.00,VWS V14.01,2013-01-30 01:26:00,
2013-01-29 20:31:00,51.6,46.0,29.95,SE,132,0.0,0.0,81,0.00,,---,0.00,VWS V14.01,2013-01-30 01:31:00,
2013-01-29 20:36:00,51.3,46.0,29.95,SE,132,0.0,0.0,82,0.00,,---,0.00,VWS V14.01,2013-01-30 01:36:00,
2013-01-29 20:41:00,51.0,45.7,29.95,SE,132,0.0,0.0,82,0.00,,---,0.00,VWS V14.01,2013-01-30 01:41:00,
2013-01-29 20:46:00,50.7,45.7,29.95,SE,132,0.0,0.0,83,0.00,,---,0.00,VWS V14.01,2013-01-30 01:46:00,
2013-01-29 20:51:00,50.4,45.4,29.95,SE,132,0.0,0.0,83,0.00,,---,0.00,VWS V14.01,2013-01-30 01:51:00,
2013-01-29 20:56:00,50.2,45.2,29.95,SE,132,0.0,0.0,83,0.00,,---,0.00,VWS V14.01,2013-01-30 01:56:00,
2013-01-29 21:01:00,50.1,45.2,29.94,SE,132,0.0,1.0,83,0.00,,---,0.00,VWS V14.01,2013-01-30 02:01:00,
2013-01-29 21:06:00,50.2,45.2,29.94,SE,132,0.0,0.0,83,0.00,,---,0.00,VWS V14.01,2013-01-30 02:06:00,
2013-01-29 21:11:00,50.2,45.2,29.94,SE,132,0.0,0.0,83,0.00,,---,0.00,VWS V14.01,2013-01-30 02:11:00,
2013-01-29 21:16:00,50.4,45.8,29.93,SE,132,0.0,0.0,84,0.00,,---,0.00,VWS V14.01,2013-01-30 02:16:00,
2013-01-29 21:21:00,51.3,46.0,29.93,SE,132,0.0,0.0,82,0.00,,---,0.00,VWS V14.01,2013-01-30 02:21:00,
2013-01-29 21:26:00,51.4,45.8,29.93,SE,132,0.0,0.0,81,0.00,,---,0.00,VWS V14.01,2013-01-30 02:26:00,
2013-01-29 21:31:00,51.6,46.3,29.93,SE,132,0.0,0.0,82,0.00,,---,0.00,VWS V14.01,2013-01-30 02:31:00,
2013-01-29 21:36:00,51.9,46.3,29.93,SE,132,0.0,0.0,81,0.00,,---,0.00,VWS V14.01,2013-01-30 02:36:00,
2013-01-29 21:41:00,52.5,46.5,29.93,SE,132,0.0,0.0,80,0.00,,---,0.00,VWS V14.01,2013-01-30 02:41:00,
2013-01-29 21:46:00,53.1,46.4,29.94,SE,132,0.0,0.0,78,0.00,,---,0.00,VWS V14.01,2013-01-30 02:46:00,
2013-01-29 21:51:00,53.8,46.1,29.94,SE,132,0.0,0.0,75,0.00,,---,0.00,VWS V14.01,2013-01-30 02:51:00,
2013-01-29 21:56:00,54.4,46.3,29.94,SE,132,0.0,0.0,74,0.00,,---,0.00,VWS V14.01,2013-01-30 02:56:00,
2013-01-29 22:01:00,54.8,46.3,29.94,SE,132,1.0,1.0,73,0.00,,---,0.00,VWS V14.01,2013-01-30 03:01:00,
2013-01-29 22:06:00,55.3,46.4,29.94,SE,132,0.0,0.0,72,0.00,,---,0.00,VWS V14.01,2013-01-30 03:06:00,
2013-01-29 22:11:00,55.3,46.1,29.94,SE,132,0.0,1.0,71,0.00,,---,0.00,VWS V14.01,2013-01-30 03:11:00,
2013-01-29 22:16:00,55.1,46.2,29.92,SE,132,0.0,0.0,72,0.00,,---,0.00,VWS V14.01,2013-01-30 03:16:00,
2013-01-29 22:21:00,54.7,45.9,29.92,SE,132,0.0,0.0,72,0.00,,---,0.00,VWS V14.01,2013-01-30 03:21:00,
2013-01-29 22:26:00,54.5,46.0,29.92,SE,132,0.0,0.0,73,0.00,,---,0.00,VWS V14.01,2013-01-30 03:26:00,
2013-01-29 22:31:00,54.4,45.9,29.92,SE,132,1.0,1.0,73,0.00,,---,0.00,VWS V14.01,2013-01-30 03:31:00,
2013-01-29 22:36:00,54.4,45.9,29.92,SE,132,0.0,0.0,73,0.00,,---,0.00,VWS V14.01,2013-01-30 03:36:00,
2013-01-29 22:41:00,54.2,45.8,29.92,SE,132,0.0,0.0,73,0.00,,---,0.00,VWS V14.01,2013-01-30 03:41:00,
2013-01-29 22:46:00,53.9,45.8,29.90,SE,132,0.0,0.0,74,0.00,,---,0.00,VWS V14.01,2013-01-30 03:46:00,
2013-01-29 22:51:00,53.3,45.6,29.90,SE,132,0.0,0.0,75,0.00,,---,0.00,VWS V14.01,2013-01-30 03:51:00,
2013-01-29 22:56:00,53.1,45.8,29.90,SE,132,0.0,0.0,76,0.00,,---,0.00,VWS V14.01,2013-01-30 03:56:00,
2013-01-29 23:01:00,52.8,45.5,29.90,SE,132,0.0,0.0,76,0.00,,---,0.00,VWS V14.01,2013-01-30 04:01:00,
2013-01-29 23:06:00,52.2,45.2,29.90,SE,132,0.0,0.0,77,0.00,,---,0.00,VWS V14.01,2013-01-30 04:06:00,
2013-01-29 23:11:00,51.6,45.0,29.90,SE,132,0.0,0.0,78,0.00,,---,0.00,VWS V14.01,2013-01-30 04:11:00,
2013-01-29 23:16:00,51.1,44.8,29.90,SE,132,0.0,1.0,79,0.00,,---,0.00,VWS V14.01,2013-01-30 04:16:00,
2013-01-29 23:21:00,50.7,44.8,29.90,SE,132,0.0,0.0,80,0.00,,---,0.00,VWS V14.01,2013-01-30 04:21:00,
2013-01-29 23:26:00,50.4,44.8,29.90,SE,132,0.0,0.0,81,0.00,,---,0.00,VWS V14.01,2013-01-30 04:26:00,
2013-01-29 23:31:00,49.9,44.3,29.90,SE,132,0.0,0.0,81,0.00,,---,0.00,VWS V14.01,2013-01-30 04:31:00,
2013-01-29 23:36:00,49.8,44.5,29.90,SE,132,0.0,0.0,82,0.00,,---,0.00,VWS V14.01,2013-01-30 04:36:00,
2013-01-29 23:41:00,49.6,44.7,29.90,SE,132,0.0,0.0,83,0.00,,---,0.00,VWS V14.01,2013-01-30 04:41:00,
2013-01-29 23:46:00,49.2,44.3,29.89,SE,132,0.0,0.0,83,0.00,,---,0.00,VWS V14.01,2013-01-30 04:46:00,
2013-01-29 23:51:00,48.9,44.0,29.89,SE,132,0.0,0.0,83,0.00,,---,0.00,VWS V14.01,2013-01-30 04:51:00,
2013-01-29 23:56:00,48.6,44.0,29.89,SE,132,0.0,0.0,84,0.00,,---,0.00,VWS V14.01,2013-01-30 04:56:00,